DW8690 Weather Reports


Display with metric or nautical units.
time (UTC)temp
F
wind
direction
speed
MPH
gust
MPH
rain 1hr
in
rain 24hr
in
rain mn
in
humidity
%
barometer
mb
20260906110604 44 0 0.0 1.0 0.00 0.00 0.00 62 1012.7
20260906110504 44 0 0.0 1.0 0.00 0.00 0.00 62 1012.6
20260906110404 44 0 0.0 2.0 0.00 0.00 0.00 62 1012.6
20260906110304 44 0 0.0 2.0 0.00 0.00 0.00 62 1012.6
20260906110203 44 0 0.0 2.0 0.00 0.00 0.00 62 1012.6
20260906110104 44 0 0.0 2.0 0.00 0.00 0.00 62 1012.6
20260906110004 44 0 0.0 2.0 0.00 0.00 0.00 62 1012.6
20260906105904 44 0 0.0 2.0 0.00 0.00 0.00 62 1012.6
20260906105804 44 0 0.0 2.0 0.00 0.00 0.00 63 1012.6
20260906105704 44 0 0.0 2.0 0.00 0.00 0.00 63 1012.5
20260906105604 44 0 0.0 2.0 0.00 0.00 0.00 63 1012.6
20260906105504 44 0 0.0 2.0 0.00 0.00 0.00 63 1012.5
20260906105404 44 0 0.0 2.0 0.00 0.00 0.00 62 1012.6
20260906105306 44 0 0.0 2.0 0.00 0.00 0.00 62 1012.6
20260906105204 44 0 0.0 2.0 0.00 0.00 0.00 62 1012.6
20260906105104 44 131 1.0 2.0 0.00 0.00 0.00 62 1012.7
20260906105004 44 129 1.0 3.0 0.00 0.00 0.00 62 1012.6
20260906104903 44 120 1.0 3.0 0.00 0.00 0.00 62 1012.5
20260906104804 44 0 0.0 3.0 0.00 0.00 0.00 62 1012.7
20260906104704 44 0 0.0 3.0 0.00 0.00 0.00 62 1012.6
20260906104204 44 0 0.0 3.0 0.00 0.00 0.00 62 1012.6
20260906104104 44 0 0.0 4.0 0.00 0.00 0.00 62 1012.6
20260906104004 44 103 2.0 4.0 0.00 0.00 0.00 62 1012.6
20260906103903 44 0 0.0 4.0 0.00 0.00 0.00 62 1012.6
20260906103804 44 0 0.0 4.0 0.00 0.00 0.00 62 1012.6
20260906103704 44 0 0.0 4.0 0.00 0.00 0.00 62 1012.6
20260906103604 44 0 0.0 4.0 0.00 0.00 0.00 61 1012.6
20260906103504 44 0 0.0 4.0 0.00 0.00 0.00 62 1012.6
20260906103404 44 93 1.0 4.0 0.00 0.00 0.00 61 1012.6
20260906103304 44 93 1.0 4.0 0.00 0.00 0.00 61 1012.6
20260906103104 44 108 2.0 2.0 0.00 0.00 0.00 61 1012.7
20260906103004 44 109 2.0 3.0 0.00 0.00 0.00 61 1012.7
20260906102904 44 110 1.0 3.0 0.00 0.00 0.00 61 1012.6
20260906102804 45 0 0.0 3.0 0.00 0.00 0.00 62 1012.6
20260906102704 45 0 0.0 3.0 0.00 0.00 0.00 62 1012.6
20260906102604 45 0 0.0 3.0 0.00 0.00 0.00 62 1012.6
20260906102504 45 0 0.0 3.0 0.00 0.00 0.00 61 1012.6
20260906102404 45 0 0.0 3.0 0.00 0.00 0.00 61 1012.6
20260906102306 45 0 0.0 3.0 0.00 0.00 0.00 61 1012.7
20260906102204 45 0 0.0 3.0 0.00 0.00 0.00 61 1012.6
20260906102105 45 96 1.0 3.0 0.00 0.00 0.00 61 1012.6
20260906102004 45 93 1.0 3.0 0.00 0.00 0.00 61 1012.6
20260906101904 45 88 1.0 3.0 0.00 0.00 0.00 61 1012.5
20260906101804 45 78 2.0 3.0 0.00 0.00 0.00 62 1012.5
20260906101704 45 0 0.0 2.0 0.00 0.00 0.00 62 1012.5
20260906101605 45 0 0.0 2.0 0.00 0.00 0.00 62 1012.5
20260906101504 45 0 0.0 2.0 0.00 0.00 0.00 62 1012.5
20260906101404 45 0 0.0 2.0 0.00 0.00 0.00 62 1012.7
20260906101303 45 79 1.0 2.0 0.00 0.00 0.00 61 1012.5
20260906101204 45 73 1.0 2.0 0.00 0.00 0.00 61 1012.7
20260906101104 45 73 1.0 2.0 0.00 0.00 0.00 61 1012.6
20260906101004 45 0 0.0 2.0 0.00 0.00 0.00 61 1012.5
20260906100903 45 82 1.0 2.0 0.00 0.00 0.00 61 1012.7
20260906100804 45 0 0.0 2.0 0.00 0.00 0.00 61 1012.6
20260906100704 45 92 1.0 2.0 0.00 0.00 0.00 60 1012.7
20260906100604 45 98 1.0 2.0 0.00 0.00 0.00 60 1012.7
20260906100503 45 98 1.0 3.0 0.00 0.00 0.00 60 1012.6
20260906100404 45 104 1.0 3.0 0.00 0.00 0.00 60 1012.7
20260906100304 45 108 1.0 3.0 0.00 0.00 0.00 60 1012.6
20260906100204 45 112 1.0 3.0 0.00 0.00 0.00 60 1012.7
20260906100103 45 110 1.0 3.0 0.00 0.00 0.00 60 1012.7
20260906100004 45 110 1.0 3.0 0.00 0.00 0.00 60 1012.6
20260906095904 45 110 2.0 3.0 0.00 0.00 0.00 60 1012.6
20260906095804 45 110 2.0 3.0 0.00 0.00 0.00 59 1012.8
20260906095703 45 109 2.0 3.0 0.00 0.00 0.00 59 1012.8
20260906095604 45 105 1.0 3.0 0.00 0.00 0.00 58 1012.7
20260906095504 45 106 2.0 3.0 0.00 0.00 0.00 58 1012.7
20260906095404 45 100 1.0 3.0 0.00 0.00 0.00 58 1012.7
20260906095306 46 0 0.0 3.0 0.00 0.00 0.00 57 1012.7
20260906095204 46 90 2.0 3.0 0.00 0.00 0.00 57 1012.7
20260906095104 46 90 2.0 2.0 0.00 0.00 0.00 57 1012.7
20260906095004 46 90 1.0 2.0 0.00 0.00 0.00 58 1012.7
20260906094903 46 0 0.0 2.0 0.00 0.00 0.00 58 1012.7
20260906094805 46 0 0.0 2.0 0.00 0.00 0.00 58 1012.6
20260906094704 46 0 0.0 2.0 0.00 0.00 0.00 58 1012.6
20260906094604 46 0 0.0 3.0 0.00 0.00 0.00 58 1012.6
20260906094505 46 0 0.0 3.0 0.00 0.00 0.00 58 1012.5
20260906094404 46 95 1.0 3.0 0.00 0.00 0.00 59 1012.6
20260906094304 46 0 0.0 3.0 0.00 0.00 0.00 58 1012.6
20260906094204 46 102 1.0 3.0 0.00 0.00 0.00 58 1012.6
20260906094104 46 0 0.0 3.0 0.00 0.00 0.00 58 1012.5
20260906094003 46 104 2.0 3.0 0.00 0.00 0.00 58 1012.6
20260906093903 46 106 2.0 3.0 0.00 0.00 0.00 58 1012.5
20260906093804 46 109 2.0 3.0 0.00 0.00 0.00 58 1012.6
20260906093604 46 127 1.0 2.0 0.00 0.00 0.00 58 1012.6
20260906093503 46 132 1.0 2.0 0.00 0.00 0.00 59 1012.7
20260906093404 46 119 2.0 2.0 0.00 0.00 0.00 58 1012.7
20260906093304 47 98 1.0 2.0 0.00 0.00 0.00 58 1012.7
20260906093104 47 0 0.0 4.0 0.00 0.00 0.00 57 1012.6
20260906093004 47 0 0.0 4.0 0.00 0.00 0.00 57 1012.6
20260906092904 47 0 0.0 4.0 0.00 0.00 0.00 57 1012.6
20260906092804 47 0 0.0 4.0 0.00 0.00 0.00 57 1012.5
20260906092704 47 0 0.0 4.0 0.00 0.00 0.00 57 1012.6
20260906092504 47 0 0.0 4.0 0.00 0.00 0.00 57 1012.6
20260906092404 48 96 1.0 4.0 0.00 0.00 0.00 57 1012.5
20260906092306 48 100 2.0 4.0 0.00 0.00 0.00 57 1012.6
20260906092204 48 105 2.0 4.0 0.00 0.00 0.00 57 1012.6
20260906092104 48 0 0.0 2.0 0.00 0.00 0.00 57 1012.6
20260906092004 48 0 0.0 2.0 0.00 0.00 0.00 57 1012.6
20260906091904 48 0 0.0 2.0 0.00 0.00 0.00 57 1012.6
20260906091804 48 0 0.0 2.0 0.00 0.00 0.00 57 1012.6
20260906091704 49 0 0.0 2.0 0.00 0.00 0.00 57 1012.7
20260906091604 49 137 1.0 2.0 0.00 0.00 0.00 56 1012.6
20260906091503 49 149 2.0 2.0 0.00 0.00 0.00 56 1012.6
20260906091404 49 161 1.0 2.0 0.00 0.00 0.00 56 1012.6
20260906090804 49 0 0.0 2.0 0.00 0.00 0.00 56 1012.6
20260906090704 50 0 0.0 2.0 0.00 0.00 0.00 54 1012.6
20260906090604 50 0 0.0 2.0 0.00 0.00 0.00 54 1012.5
20260906090504 50 0 0.0 2.0 0.00 0.00 0.00 54 1012.6
20260906090404 50 0 0.0 2.0 0.00 0.00 0.00 54 1012.6
20260906090304 50 0 0.0 2.0 0.00 0.00 0.00 54 1012.6
20260906090204 50 0 0.0 2.0 0.00 0.00 0.00 54 1012.7
20260906090104 50 0 0.0 3.0 0.00 0.00 0.00 54 1012.5
20260906090004 50 118 1.0 3.0 0.00 0.00 0.00 54 1012.7
20260906085903 50 0 0.0 3.0 0.00 0.00 0.00 54 1012.6
20260906085804 50 120 1.0 3.0 0.00 0.00 0.00 54 1012.6
20260906085704 50 0 0.0 3.0 0.00 0.00 0.00 53 1012.6
20260906085604 50 0 0.0 3.0 0.00 0.00 0.00 53 1012.6
20260906085503 50 0 0.0 3.0 0.00 0.00 0.00 53 1012.5
20260906085404 50 0 0.0 3.0 0.00 0.00 0.00 53 1012.5
20260906085306 50 187 1.0 3.0 0.00 0.00 0.00 52 1012.5
20260906085203 50 203 2.0 3.0 0.00 0.00 0.00 52 1012.5
20260906085104 51 0 0.0 3.0 0.00 0.00 0.00 52 1012.6
20260906085004 51 0 0.0 3.0 0.00 0.00 0.00 52 1012.5
20260906084904 51 0 0.0 3.0 0.00 0.00 0.00 52 1012.4
20260906084804 51 199 2.0 3.0 0.00 0.00 0.00 54 1012.5
20260906084704 51 0 0.0 2.0 0.00 0.00 0.00 55 1012.3
20260906084604 51 0 0.0 2.0 0.00 0.00 0.00 56 1012.4
20260906084503 50 0 0.0 2.0 0.00 0.00 0.00 55 1012.4
20260906084403 50 106 1.0 2.0 0.00 0.00 0.00 54 1012.4
20260906084304 50 0 0.0 2.0 0.00 0.00 0.00 54 1012.4
20260906083804 50 96 1.0 2.0 0.00 0.00 0.00 50 1012.5
20260906083704 51 102 1.0 2.0 0.00 0.00 0.00 51 1012.4
20260906083603 51 0 0.0 2.0 0.00 0.00 0.00 51 1012.4
20260906083504 51 114 2.0 2.0 0.00 0.00 0.00 51 1012.5
20260906083404 51 123 1.0 2.0 0.00 0.00 0.00 52 1012.4
20260906083304 51 131 2.0 2.0 0.00 0.00 0.00 52 1012.4
20260906083203 51 0 0.0 2.0 0.00 0.00 0.00 52 1012.5
20260906083104 51 0 0.0 2.0 0.00 0.00 0.00 52 1012.5
20260906083004 51 0 0.0 2.0 0.00 0.00 0.00 52 1012.5
20260906082904 51 147 1.0 2.0 0.00 0.00 0.00 52 1012.5
20260906082803 52 149 1.0 2.0 0.00 0.00 0.00 52 1012.4
20260906081604 53 159 1.0 2.0 0.00 0.00 0.00 49 1012.4
20260906081504 53 136 1.0 2.0 0.00 0.00 0.00 49 1012.4
20260906081404 53 121 1.0 2.0 0.00 0.00 0.00 49 1012.5
20260906081303 53 108 2.0 2.0 0.00 0.00 0.00 48 1012.3
20260906081204 53 0 0.0 2.0 0.00 0.00 0.00 47 1012.3
20260906081104 53 0 0.0 2.0 0.00 0.00 0.00 48 1012.4
20260906080404 54 0 0.0 2.0 0.00 0.00 0.00 49 1012.3
20260906080303 54 0 0.0 2.0 0.00 0.00 0.00 49 1012.3
20260906080203 54 0 0.0 2.0 0.00 0.00 0.00 49 1012.2
20260906080104 54 0 0.0 2.0 0.00 0.00 0.00 49 1012.3
20260906080004 53 359 1.0 3.0 0.00 0.00 0.00 49 1012.3
20260906075904 54 356 1.0 3.0 0.00 0.00 0.00 49 1012.2
20260906075804 53 348 2.0 3.0 0.00 0.00 0.00 49 1012.3
20260906075704 53 345 2.0 3.0 0.00 0.00 0.00 50 1012.2
20260906075604 53 341 2.0 3.0 0.00 0.00 0.00 49 1012.2
20260906075504 53 337 2.0 3.0 0.00 0.00 0.00 49 1012.3
20260906075403 53 331 1.0 3.0 0.00 0.00 0.00 49 1012.3
20260906074903 53 310 1.0 3.0 0.00 0.00 0.00 48 1012.2
20260906074304 53 289 1.0 3.0 0.00 0.00 0.00 48 1012.3
20260906074204 53 284 2.0 3.0 0.00 0.00 0.00 48 1012.2
20260906074104 53 281 2.0 3.0 0.00 0.00 0.00 48 1012.1
20260906074004 53 274 1.0 2.0 0.00 0.00 0.00 48 1012.2
20260906073904 53 0 0.0 2.0 0.00 0.00 0.00 48 1012.3
20260906073803 53 0 0.0 2.0 0.00 0.00 0.00 48 1012.2
20260906073703 53 275 1.0 2.0 0.00 0.00 0.00 48 1012.3
20260906073604 53 279 1.0 2.0 0.00 0.00 0.00 48 1012.3
20260906073504 53 282 1.0 2.0 0.00 0.00 0.00 48 1012.3
20260906073403 53 284 1.0 2.0 0.00 0.00 0.00 47 1012.2
20260906073304 53 286 1.0 2.0 0.00 0.00 0.00 47 1012.3
20260906073204 54 289 1.0 2.0 0.00 0.00 0.00 47 1012.3
20260906073103 54 289 2.0 2.0 0.00 0.00 0.00 46 1012.2
20260906073003 54 295 2.0 2.0 0.00 0.00 0.00 46 1012.2
20260906072904 54 302 1.0 2.0 0.00 0.00 0.00 46 1012.2
20260906072803 54 307 1.0 2.0 0.00 0.00 0.00 46 1012.2
20260906072704 54 300 1.0 2.0 0.00 0.00 0.00 46 1012.3
20260906072604 54 291 1.0 2.0 0.00 0.00 0.00 46 1012.2
20260906072503 54 0 0.0 2.0 0.00 0.00 0.00 46 1012.2
20260906072404 54 0 0.0 2.0 0.00 0.00 0.00 46 1012.3
20260906072306 54 0 0.0 2.0 0.00 0.00 0.00 45 1012.2
20260906072104 54 0 0.0 2.0 0.00 0.00 0.00 45 1012.3
20260906072004 55 258 1.0 2.0 0.00 0.00 0.00 45 1012.2
20260906071904 55 251 1.0 2.0 0.00 0.00 0.00 45 1012.2
20260906071804 55 0 0.0 2.0 0.00 0.00 0.00 45 1012.2
20260906071704 55 240 2.0 2.0 0.00 0.00 0.00 45 1012.2
20260906071604 55 250 1.0 4.0 0.00 0.00 0.00 45 1012.2
20260906071504 55 257 1.0 4.0 0.00 0.00 0.00 45 1012.3
20260906071403 55 0 0.0 4.0 0.00 0.00 0.00 44 1012.3
20260906071303 55 273 1.0 4.0 0.00 0.00 0.00 44 1012.3
20260906071204 56 0 0.0 4.0 0.00 0.00 0.00 44 1012.2
20260906071104 56 283 1.0 4.0 0.00 0.00 0.00 44 1012.2
20260906071003 56 285 1.0 4.0 0.00 0.00 0.00 44 1012.2
20260906070904 56 283 1.0 4.0 0.00 0.00 0.00 44 1012.2
20260906070804 56 0 0.0 4.0 0.00 0.00 0.00 44 1012.1
20260906070704 56 278 2.0 6.0 0.00 0.00 0.00 44 1012.2
20260906070603 56 273 2.0 6.0 0.00 0.00 0.00 44 1012.2
20260906070006 56 252 2.0 6.0 0.00 0.00 0.00 43 1012.2
20260906065904 56 254 2.0 6.0 0.00 0.00 0.00 43 1012.1
20260906065804 56 254 2.0 6.0 0.00 0.00 0.00 44 1012.2
20260906065703 56 254 3.0 6.0 0.00 0.00 0.00 44 1012.1
20260906065604 56 253 4.0 5.0 0.00 0.00 0.00 43 1012.0
20260906065504 56 250 4.0 5.0 0.00 0.00 0.00 43 1012.1
20260906065403 56 246 3.0 5.0 0.00 0.00 0.00 42 1012.1
20260906065305 56 241 3.0 4.0 0.00 0.00 0.00 42 1012.1
20260906065204 57 242 2.0 4.0 0.00 0.00 0.00 41 1012.1
20260906065104 57 241 2.0 4.0 0.00 0.00 0.00 41 1012.1
20260906065003 57 252 2.0 3.0 0.00 0.00 0.00 40 1012.1
20260906064904 57 259 2.0 3.0 0.00 0.00 0.00 40 1012.0
20260906064804 57 269 2.0 3.0 0.00 0.00 0.00 40 1012.1
20260906064703 57 277 2.0 3.0 0.00 0.00 0.00 40 1012.1
20260906064603 57 288 2.0 3.0 0.00 0.00 0.00 40 1012.1
20260906064503 57 0 0.0 2.0 0.00 0.00 0.00 40 1012.1
20260906064404 57 0 0.0 2.0 0.00 0.00 0.00 40 1011.9
20260906064304 57 0 0.0 2.0 0.00 0.00 0.00 40 1012.0
20260906064203 57 0 0.0 2.0 0.00 0.00 0.00 40 1011.8
20260906064104 57 0 0.0 2.0 0.00 0.00 0.00 40 1012.0
20260906064004 58 275 1.0 2.0 0.00 0.00 0.00 40 1012.0
20260906063903 58 273 1.0 2.0 0.00 0.00 0.00 39 1012.0
20260906063804 58 275 1.0 2.0 0.00 0.00 0.00 39 1011.9
20260906063704 58 282 1.0 2.0 0.00 0.00 0.00 39 1011.9
20260906063603 58 0 0.0 2.0 0.00 0.00 0.00 39 1011.9
20260906063504 58 0 0.0 3.0 0.00 0.00 0.00 38 1011.9
20260906063404 58 296 1.0 3.0 0.00 0.00 0.00 38 1011.8
20260906063303 58 0 0.0 3.0 0.00 0.00 0.00 38 1011.8
20260906063204 58 0 0.0 3.0 0.00 0.00 0.00 38 1011.8
20260906063104 58 0 0.0 3.0 0.00 0.00 0.00 38 1012.0
20260906063003 59 0 0.0 3.0 0.00 0.00 0.00 37 1011.9
20260906062904 59 0 0.0 3.0 0.00 0.00 0.00 37 1011.9
20260906062804 59 296 1.0 4.0 0.00 0.00 0.00 37 1011.9
20260906062703 59 295 1.0 4.0 0.00 0.00 0.00 37 1011.8
20260906062104 61 1 2.0 6.0 0.00 0.00 0.00 36 1011.8
20260906062004 61 25 2.0 9.0 0.00 0.00 0.00 36 1011.8
20260906061904 61 40 2.0 9.0 0.00 0.00 0.00 36 1011.8
20260906061804 61 53 2.0 9.0 0.00 0.00 0.00 36 1011.7
20260906061704 62 64 2.0 9.0 0.00 0.00 0.00 36 1011.7
20260906061604 62 76 2.0 9.0 0.00 0.00 0.00 37 1011.8
20260906061404 62 90 2.0 9.0 0.00 0.00 0.00 37 1011.6
20260906061303 62 96 2.0 9.0 0.00 0.00 0.00 37 1011.7
20260906061203 62 102 4.0 9.0 0.00 0.00 0.00 38 1011.6
20260906061104 62 107 4.0 9.0 0.00 0.00 0.00 38 1011.7
20260906061004 62 115 5.0 9.0 0.00 0.00 0.00 38 1011.6
20260906060504 61 113 4.0 6.0 0.00 0.00 0.00 36 1011.5
20260906060403 61 106 4.0 6.0 0.00 0.00 0.00 36 1011.6
20260906060303 61 102 4.0 6.0 0.00 0.00 0.00 36 1011.5
20260906060204 61 96 4.0 6.0 0.00 0.00 0.00 36 1011.6
20260906060104 61 90 4.0 6.0 0.00 0.00 0.00 36 1011.5
20260906055403 62 80 2.0 5.0 0.00 0.00 0.00 36 1011.5
20260906055306 62 76 2.0 5.0 0.00 0.00 0.00 36 1011.5
20260906055204 62 76 2.0 5.0 0.00 0.00 0.00 36 1011.6
20260906055104 62 77 2.0 6.0 0.00 0.00 0.00 36 1011.5
20260906055003 62 78 2.0 7.0 0.00 0.00 0.00 36 1011.6
20260906054903 62 81 3.0 7.0 0.00 0.00 0.00 36 1011.4
20260906054804 62 83 2.0 7.0 0.00 0.00 0.00 35 1011.4
20260906054703 62 80 2.0 7.0 0.00 0.00 0.00 35 1011.4
20260906054603 62 79 2.0 7.0 0.00 0.00 0.00 35 1011.5
20260906054504 62 82 4.0 7.0 0.00 0.00 0.00 35 1011.5
20260906054404 61 88 2.0 7.0 0.00 0.00 0.00 35 1011.4
20260906054304 61 91 2.0 7.0 0.00 0.00 0.00 35 1011.4
20260906054203 61 95 2.0 7.0 0.00 0.00 0.00 35 1011.5
20260906054104 61 103 4.0 7.0 0.00 0.00 0.00 35 1011.4
20260906054004 61 115 4.0 6.0 0.00 0.00 0.00 35 1011.4
20260906053904 61 124 2.0 6.0 0.00 0.00 0.00 34 1011.4
20260906053803 61 131 3.0 6.0 0.00 0.00 0.00 34 1011.4
20260906053703 61 140 2.0 6.0 0.00 0.00 0.00 34 1011.4
20260906053604 61 128 4.0 6.0 0.00 0.00 0.00 34 1011.4
20260906053504 61 127 3.0 6.0 0.00 0.00 0.00 34 1011.4
20260906053404 61 125 2.0 5.0 0.00 0.00 0.00 34 1011.4
20260906053304 61 121 2.0 5.0 0.00 0.00 0.00 33 1011.3
20260906053203 61 113 2.0 5.0 0.00 0.00 0.00 33 1011.3
20260906053104 61 103 1.0 5.0 0.00 0.00 0.00 32 1011.3
20260906052604 62 90 2.0 5.0 0.00 0.00 0.00 32 1011.4
20260906052504 62 93 2.0 5.0 0.00 0.00 0.00 32 1011.4
20260906052404 62 96 2.0 5.0 0.00 0.00 0.00 32 1011.5
20260906052305 62 101 2.0 5.0 0.00 0.00 0.00 32 1011.4
20260906052204 62 107 2.0 5.0 0.00 0.00 0.00 32 1011.4
20260906052104 62 114 2.0 5.0 0.00 0.00 0.00 32 1011.3
20260906051904 62 124 2.0 5.0 0.00 0.00 0.00 32 1011.3
20260906051803 62 129 2.0 5.0 0.00 0.00 0.00 32 1011.3
20260906051704 62 132 2.0 5.0 0.00 0.00 0.00 32 1011.3
20260906051604 62 137 2.0 5.0 0.00 0.00 0.00 32 1011.2
20260906051504 62 135 2.0 5.0 0.00 0.00 0.00 32 1011.3
20260906051404 63 132 2.0 5.0 0.00 0.00 0.00 31 1011.3
20260906051304 63 122 2.0 5.0 0.00 0.00 0.00 31 1011.2
20260906051203 63 106 2.0 5.0 0.00 0.00 0.00 31 1011.3
20260906051103 63 93 1.0 5.0 0.00 0.00 0.00 31 1011.2
20260906051004 63 83 1.0 5.0 0.00 0.00 0.00 31 1011.2
20260906050904 63 78 2.0 5.0 0.00 0.00 0.00 31 1011.2
20260906050804 63 62 3.0 4.0 0.00 0.00 0.00 30 1011.1
20260906050704 63 64 2.0 4.0 0.00 0.00 0.00 30 1011.3
20260906050603 64 70 1.0 4.0 0.00 0.00 0.00 30 1011.2
20260906050504 64 69 1.0 4.0 0.00 0.00 0.00 30 1011.3
20260906050404 64 88 1.0 4.0 0.00 0.00 0.00 29 1011.2
20260906050303 64 96 1.0 4.0 0.00 0.00 0.00 29 1011.2
20260906050204 64 109 1.0 4.0 0.00 0.00 0.00 29 1011.2
20260906050104 64 111 1.0 5.0 0.00 0.00 0.00 29 1011.1
20260906050004 65 121 2.0 5.0 0.00 0.00 0.00 29 1011.2
20260906045904 65 126 1.0 5.0 0.00 0.00 0.00 29 1011.2
20260906045804 65 132 2.0 5.0 0.00 0.00 0.00 28 1011.2
20260906045703 65 131 2.0 5.0 0.00 0.00 0.00 28 1011.3
20260906045604 66 131 1.0 5.0 0.00 0.00 0.00 27 1011.2
20260906045504 66 131 2.0 5.0 0.00 0.00 0.00 27 1011.1
20260906045403 66 131 1.0 5.0 0.00 0.00 0.00 26 1011.1
20260906045306 66 0 0.0 5.0 0.00 0.00 0.00 26 1011.2
20260906045204 67 124 1.0 5.0 0.00 0.00 0.00 25 1011.1
20260906045104 67 132 2.0 5.0 0.00 0.00 0.00 25 1011.1
20260906045004 67 133 2.0 6.0 0.00 0.00 0.00 24 1011.2
20260906044904 67 140 2.0 6.0 0.00 0.00 0.00 24 1011.1
20260906044804 67 141 1.0 8.0 0.00 0.00 0.00 23 1011.2
20260906044703 68 152 1.0 11.0 0.00 0.00 0.00 23 1011.1
20260906044603 68 163 2.0 11.0 0.00 0.00 0.00 23 1011.0
20260906044504 68 169 2.0 11.0 0.00 0.00 0.00 23 1011.1
20260906044404 68 171 2.0 11.0 0.00 0.00 0.00 22 1011.0
20260906044303 68 169 3.0 11.0 0.00 0.00 0.00 21 1010.9
20260906044204 68 168 2.0 11.0 0.00 0.00 0.00 21 1011.0
20260906044104 68 151 2.0 11.0 0.00 0.00 0.00 21 1010.9
20260906044003 67 139 2.0 11.0 0.00 0.00 0.00 21 1011.0
20260906043903 67 142 2.0 11.0 0.00 0.00 0.00 21 1011.1
20260906043804 67 131 4.0 16.0 0.00 0.00 0.00 22 1011.0
20260906043704 67 128 4.0 16.0 0.00 0.00 0.00 22 1010.9
20260906043603 67 107 5.0 16.0 0.00 0.00 0.00 23 1011.1
20260906043504 67 98 1.0 16.0 0.00 0.00 0.00 24 1011.1
20260906043404 66 93 3.0 16.0 0.00 0.00 0.00 24 1011.2
20260906043304 66 95 2.0 16.0 0.00 0.00 0.00 25 1011.2
20260906043203 66 94 9.0 16.0 0.00 0.00 0.00 26 1011.2
20260906043104 66 95 6.0 16.0 0.00 0.00 0.00 26 1011.0
20260906043004 66 95 7.0 16.0 0.00 0.00 0.00 26 1011.0
20260906042903 65 94 4.0 16.0 0.00 0.00 0.00 26 1011.1
20260906042803 65 95 4.0 10.0 0.00 0.00 0.00 27 1010.9
20260906042704 66 94 4.0 10.0 0.00 0.00 0.00 27 1010.9
20260906042604 66 103 2.0 7.0 0.00 0.00 0.00 26 1010.9
20260906042503 66 104 2.0 7.0 0.00 0.00 0.00 26 1010.8
20260906042404 66 114 2.0 7.0 0.00 0.00 0.00 26 1011.0
20260906042306 66 108 4.0 7.0 0.00 0.00 0.00 26 1011.0
20260906042203 66 121 4.0 7.0 0.00 0.00 0.00 25 1011.0
20260906042104 67 151 2.0 7.0 0.00 0.00 0.00 25 1010.9
20260906042004 67 198 2.0 10.0 0.00 0.00 0.00 24 1010.8
20260906041903 67 213 1.0 12.0 0.00 0.00 0.00 24 1010.9
20260906041803 67 220 1.0 12.0 0.00 0.00 0.00 24 1010.8
20260906041704 67 225 2.0 12.0 0.00 0.00 0.00 23 1010.9
20260906041604 67 227 2.0 14.0 0.00 0.00 0.00 23 1011.0
20260906041504 67 228 2.0 14.0 0.00 0.00 0.00 24 1011.0
20260906041403 67 230 2.0 14.0 0.00 0.00 0.00 23 1010.8
20260906041304 67 227 4.0 14.0 0.00 0.00 0.00 23 1010.8
20260906041204 68 225 2.0 14.0 0.00 0.00 0.00 23 1010.8
20260906041103 68 225 5.0 14.0 0.00 0.00 0.00 23 1010.8
20260906040904 68 225 8.0 14.0 0.00 0.00 0.00 23 1010.7
20260906040803 68 225 6.0 18.0 0.00 0.00 0.00 23 1010.7
20260906040704 68 225 9.0 18.0 0.00 0.00 0.00 23 1010.6
20260906040604 68 225 9.0 18.0 0.00 0.00 0.00 23 1010.6
20260906040504 68 232 9.0 18.0 0.00 0.00 0.00 23 1010.7
20260906040403 68 232 9.0 18.0 0.00 0.00 0.00 23 1010.5
20260906040303 68 230 9.0 18.0 0.00 0.00 0.00 23 1010.5
20260906040203 68 227 9.0 18.0 0.00 0.00 0.00 23 1010.5
20260906040104 68 223 9.0 18.0 0.00 0.00 0.00 23 1010.5
20260906040004 68 223 7.0 18.0 0.00 0.00 0.00 23 1010.5
20260906035903 68 223 11.0 18.0 0.00 0.00 0.00 23 1010.3
20260906035804 67 223 11.0 18.0 0.00 0.00 0.00 24 1010.3
20260906035704 67 223 7.0 15.0 0.00 0.00 0.00 23 1010.3
20260906035603 67 226 7.0 15.0 0.00 0.00 0.00 24 1010.4
20260906035504 67 217 8.0 13.0 0.00 0.00 0.00 23 1010.4
20260906035306 67 220 5.0 15.0 0.00 0.00 0.00 23 1010.5
20260906035204 67 220 8.0 15.0 0.00 0.00 0.00 23 1010.4
20260906035104 67 225 6.0 15.0 0.00 0.00 0.00 23 1010.4
20260906035003 67 225 8.0 15.0 0.00 0.00 0.00 24 1010.4
20260906034804 67 225 7.0 15.0 0.00 0.00 0.00 24 1010.3
20260906034704 67 225 7.0 15.0 0.00 0.00 0.00 24 1010.3
20260906034603 67 228 8.0 17.0 0.00 0.00 0.00 24 1010.3
20260906034503 67 228 7.0 17.0 0.00 0.00 0.00 24 1010.4
20260906034404 67 228 8.0 17.0 0.00 0.00 0.00 24 1010.3
20260906034304 67 228 9.0 17.0 0.00 0.00 0.00 24 1010.3
20260906034203 67 231 9.0 17.0 0.00 0.00 0.00 24 1010.4
20260906034103 68 236 8.0 17.0 0.00 0.00 0.00 24 1010.4
20260906034004 68 236 7.0 17.0 0.00 0.00 0.00 24 1010.4
20260906033904 68 235 10.0 17.0 0.00 0.00 0.00 24 1010.3
20260906033703 68 236 9.0 17.0 0.00 0.00 0.00 24 1010.4
20260906033604 68 232 9.0 15.0 0.00 0.00 0.00 23 1010.3
20260906033504 68 232 8.0 15.0 0.00 0.00 0.00 23 1010.4
20260906033403 68 232 8.0 15.0 0.00 0.00 0.00 23 1010.3
20260906033204 68 228 10.0 15.0 0.00 0.00 0.00 23 1010.4
20260906033104 68 226 11.0 15.0 0.00 0.00 0.00 23 1010.3
20260906033003 68 232 10.0 14.0 0.00 0.00 0.00 23 1010.3
20260906032903 67 239 9.0 14.0 0.00 0.00 0.00 23 1010.3
20260906032804 67 249 6.0 14.0 0.00 0.00 0.00 23 1010.3
20260906032703 67 248 6.0 14.0 0.00 0.00 0.00 23 1010.2
20260906032603 67 243 7.0 14.0 0.00 0.00 0.00 23 1010.2
20260906032503 67 244 7.0 14.0 0.00 0.00 0.00 23 1010.3
20260906032404 68 242 8.0 13.0 0.00 0.00 0.00 23 1010.3
20260906032306 68 245 4.0 17.0 0.00 0.00 0.00 23 1010.2
20260906032203 68 244 6.0 17.0 0.00 0.00 0.00 23 1010.3
20260906032104 68 241 6.0 17.0 0.00 0.00 0.00 23 1010.3
20260906032004 68 233 7.0 17.0 0.00 0.00 0.00 22 1010.3
20260906031904 68 227 8.0 17.0 0.00 0.00 0.00 22 1010.1
20260906031804 68 219 8.0 17.0 0.00 0.00 0.00 22 1010.2
20260906031703 68 216 7.0 17.0 0.00 0.00 0.00 22 1010.2
20260906031603 68 216 6.0 17.0 0.00 0.00 0.00 22 1010.3
20260906031504 68 216 7.0 17.0 0.00 0.00 0.00 21 1010.2
20260906031404 68 217 8.0 17.0 0.00 0.00 0.00 21 1010.2
20260906031303 68 219 9.0 17.0 0.00 0.00 0.00 21 1010.2
20260906031203 68 219 8.0 11.0 0.00 0.00 0.00 21 1010.2
20260906031104 68 219 7.0 11.0 0.00 0.00 0.00 21 1010.2
20260906031004 68 219 6.0 11.0 0.00 0.00 0.00 21 1010.0
20260906030903 68 219 7.0 12.0 0.00 0.00 0.00 21 1010.0
20260906030803 69 219 8.0 12.0 0.00 0.00 0.00 20 1010.1
20260906030703 69 222 8.0 13.0 0.00 0.00 0.00 19 1010.1
20260906030604 69 222 8.0 14.0 0.00 0.00 0.00 19 1010.1
20260906030504 69 222 8.0 14.0 0.00 0.00 0.00 19 1010.1
20260906030404 69 224 8.0 14.0 0.00 0.00 0.00 19 1010.2
20260906030303 69 228 8.0 14.0 0.00 0.00 0.00 19 1010.1
20260906030204 69 230 8.0 14.0 0.00 0.00 0.00 19 1010.1
20260906030104 69 231 8.0 14.0 0.00 0.00 0.00 19 1010.0
20260906030004 69 231 8.0 14.0 0.00 0.00 0.00 19 1009.9
20260906025904 69 231 8.0 14.0 0.00 0.00 0.00 19 1010.1
20260906025804 69 234 6.0 14.0 0.00 0.00 0.00 19 1010.0
20260906025704 69 235 8.0 14.0 0.00 0.00 0.00 19 1010.0
20260906025604 69 235 8.0 12.0 0.00 0.00 0.00 19 1010.1
20260906025503 69 235 7.0 11.0 0.00 0.00 0.00 19 1009.9
20260906025404 69 234 6.0 11.0 0.00 0.00 0.00 19 1010.0
20260906025306 69 232 5.0 11.0 0.00 0.00 0.00 19 1010.0
20260906025203 68 232 8.0 11.0 0.00 0.00 0.00 20 1010.0
20260906025104 68 235 8.0 11.0 0.00 0.00 0.00 20 1010.0
20260906025004 68 237 8.0 11.0 0.00 0.00 0.00 20 1010.0
20260906024903 68 238 8.0 11.0 0.00 0.00 0.00 20 1010.0
20260906024803 68 238 8.0 11.0 0.00 0.00 0.00 20 1009.9
20260906024703 68 242 8.0 11.0 0.00 0.00 0.00 20 1010.0
20260906024604 68 244 8.0 11.0 0.00 0.00 0.00 20 1009.9
20260906024104 68 260 4.0 8.0 0.00 0.00 0.00 19 1009.9
20260906024003 68 269 4.0 8.0 0.00 0.00 0.00 19 1009.9
20260906023904 68 273 4.0 8.0 0.00 0.00 0.00 19 1010.0
20260906023804 68 279 5.0 8.0 0.00 0.00 0.00 19 1010.0
20260906023703 68 285 5.0 8.0 0.00 0.00 0.00 19 1010.0
20260906023603 69 287 4.0 8.0 0.00 0.00 0.00 19 1009.9
20260906023504 69 281 3.0 8.0 0.00 0.00 0.00 19 1010.1
20260906023203 69 259 4.0 8.0 0.00 0.00 0.00 18 1009.9
20260906023104 69 265 3.0 8.0 0.00 0.00 0.00 18 1010.0
20260906023004 69 254 3.0 8.0 0.00 0.00 0.00 18 1010.1
20260906022903 69 248 3.0 8.0 0.00 0.00 0.00 18 1009.9
20260906022803 69 244 3.0 8.0 0.00 0.00 0.00 18 1010.1
20260906022704 69 237 4.0 8.0 0.00 0.00 0.00 17 1010.0
20260906022603 69 233 4.0 8.0 0.00 0.00 0.00 17 1010.1
20260906022503 70 229 4.0 8.0 0.00 0.00 0.00 17 1010.0
20260906022404 70 230 4.0 9.0 0.00 0.00 0.00 17 1010.0
20260906022306 70 238 5.0 9.0 0.00 0.00 0.00 17 1010.0
20260906022203 70 242 5.0 9.0 0.00 0.00 0.00 17 1010.1
20260906022104 70 238 5.0 9.0 0.00 0.00 0.00 17 1010.1
20260906022004 71 242 4.0 9.0 0.00 0.00 0.00 16 1010.1
20260906021904 71 249 4.0 9.0 0.00 0.00 0.00 15 1010.1
20260906021804 71 250 4.0 9.0 0.00 0.00 0.00 15 1010.1
20260906021704 71 251 4.0 9.0 0.00 0.00 0.00 15 1010.2
20260906021604 71 250 4.0 9.0 0.00 0.00 0.00 14 1010.1
20260906021504 71 250 4.0 10.0 0.00 0.00 0.00 14 1010.2
20260906021403 71 247 4.0 10.0 0.00 0.00 0.00 14 1010.1
20260906021304 71 237 4.0 11.0 0.00 0.00 0.00 14 1010.1
20260906021204 71 239 4.0 11.0 0.00 0.00 0.00 14 1010.2
20260906020503 72 227 8.0 11.0 0.00 0.00 0.00 13 1010.0
20260906020404 72 227 5.0 11.0 0.00 0.00 0.00 13 1010.1
20260906020304 72 227 6.0 11.0 0.00 0.00 0.00 13 1010.1
20260906020203 72 227 4.0 10.0 0.00 0.00 0.00 13 1010.1
20260906020004 73 227 4.0 10.0 0.00 0.00 0.00 12 1010.2
20260906015904 73 235 5.0 10.0 0.00 0.00 0.00 12 1010.2
20260906015803 73 245 6.0 10.0 0.00 0.00 0.00 11 1010.1
20260906015703 73 246 4.0 12.0 0.00 0.00 0.00 11 1010.1
20260906015603 74 252 4.0 12.0 0.00 0.00 0.00 11 1010.1
20260906015404 74 265 5.0 12.0 0.00 0.00 0.00 11 1010.1
20260906015306 74 274 4.0 12.0 0.00 0.00 0.00 11 1010.1
20260906015204 75 278 7.0 12.0 0.00 0.00 0.00 10 1010.2
20260906015104 75 283 5.0 12.0 0.00 0.00 0.00 10 1010.2
20260906015004 75 284 6.0 12.0 0.00 0.00 0.00 10 1010.2
20260906014904 75 280 8.0 12.0 0.00 0.00 0.00 10 1010.2
20260906014804 76 265 8.0 12.0 0.00 0.00 0.00 10 1010.2
20260906014703 76 269 5.0 12.0 0.00 0.00 0.00 10 1010.2
20260906014604 76 265 8.0 12.0 0.00 0.00 0.00 10 1010.2
20260906014503 76 254 8.0 12.0 0.00 0.00 0.00 10 1010.2
20260906014403 76 255 7.0 13.0 0.00 0.00 0.00 10 1010.1
20260906013803 77 235 7.0 13.0 0.00 0.00 0.00 10 1010.0
20260906013704 77 235 6.0 13.0 0.00 0.00 0.00 10 1010.1
20260906013603 77 233 6.0 13.0 0.00 0.00 0.00 10 1010.1
20260906013503 77 233 6.0 13.0 0.00 0.00 0.00 10 1010.0
20260906013403 77 229 8.0 13.0 0.00 0.00 0.00 10 1010.0
20260906013304 77 233 8.0 13.0 0.00 0.00 0.00 10 1010.1
20260906013204 77 239 7.0 13.0 0.00 0.00 0.00 10 1010.1
20260906013103 77 235 9.0 13.0 0.00 0.00 0.00 10 1010.2
20260906013003 77 235 9.0 13.0 0.00 0.00 0.00 10 1010.1
20260906012904 77 235 7.0 15.0 0.00 0.00 0.00 10 1010.0
20260906012803 77 238 8.0 15.0 0.00 0.00 0.00 10 1010.0
20260906012703 77 241 6.0 15.0 0.00 0.00 0.00 10 1010.1
20260906012604 77 241 4.0 15.0 0.00 0.00 0.00 10 1010.1
20260906012504 77 241 6.0 15.0 0.00 0.00 0.00 10 1010.2
20260906012403 77 240 5.0 15.0 0.00 0.00 0.00 10 1010.1
20260906012306 77 237 6.0 15.0 0.00 0.00 0.00 10 1010.1
20260906012203 77 233 7.0 16.0 0.00 0.00 0.00 10 1010.2
20260906012103 77 231 8.0 16.0 0.00 0.00 0.00 10 1010.2
20260906012004 77 235 11.0 17.0 0.00 0.00 0.00 10 1010.2
20260906011904 77 240 9.0 17.0 0.00 0.00 0.00 10 1010.2
20260906011803 77 247 9.0 17.0 0.00 0.00 0.00 10 1010.2
20260906011703 78 251 8.0 17.0 0.00 0.00 0.00 10 1010.1
20260906011604 78 248 8.0 17.0 0.00 0.00 0.00 10 1010.1
20260906011503 78 247 8.0 17.0 0.00 0.00 0.00 10 1010.1
20260906011403 78 247 8.0 17.0 0.00 0.00 0.00 10 1010.1
20260906011303 78 248 8.0 17.0 0.00 0.00 0.00 10 1010.0
20260906010803 78 227 10.0 17.0 0.00 0.00 0.00 10 1009.9
20260906010704 78 223 11.0 17.0 0.00 0.00 0.00 10 1010.0
20260906010603 78 224 8.0 15.0 0.00 0.00 0.00 10 1009.9
20260906010503 78 225 7.0 15.0 0.00 0.00 0.00 10 1010.1
20260906010403 78 225 8.0 15.0 0.00 0.00 0.00 10 1010.0
20260906010204 78 225 11.0 15.0 0.00 0.00 0.00 10 1010.0
20260906010103 78 225 8.0 15.0 0.00 0.00 0.00 10 1010.1
20260906010004 78 222 8.0 17.0 0.00 0.00 0.00 10 1010.1
20260906005904 78 226 10.0 17.0 0.00 0.00 0.00 10 1010.1
20260906005803 78 225 11.0 17.0 0.00 0.00 0.00 10 1010.0
20260906005704 78 230 8.0 17.0 0.00 0.00 0.00 10 1010.1
20260906005603 78 236 8.0 17.0 0.00 0.00 0.00 10 1010.0
20260906005503 78 235 9.0 17.0 0.00 0.00 0.00 10 1010.0
20260906005404 78 231 8.0 17.0 0.00 0.00 0.00 10 1010.0
20260906005306 78 231 11.0 17.0 0.00 0.00 0.00 10 1010.0
20260906005203 78 231 7.0 17.0 0.00 0.00 0.00 10 1010.1
20260906005103 79 234 9.0 17.0 0.00 0.00 0.00 10 1010.0
20260906005004 79 239 11.0 21.0 0.00 0.00 0.00 10 1010.0
20260906004904 79 240 11.0 21.0 0.00 0.00 0.00 10 1010.0
20260906004803 78 238 10.0 22.0 0.00 0.00 0.00 10 1010.1
20260906004703 78 232 9.0 22.0 0.00 0.00 0.00 10 1010.0
20260906004604 79 228 10.0 22.0 0.00 0.00 0.00 10 1010.2
20260906004504 79 232 10.0 22.0 0.00 0.00 0.00 10 1010.1
20260906004403 79 244 11.0 22.0 0.00 0.00 0.00 10 1010.1
20260906004304 79 248 11.0 22.0 0.00 0.00 0.00 10 1010.1
20260906004203 79 249 12.0 22.0 0.00 0.00 0.00 10 1010.1
20260906004103 79 246 10.0 22.0 0.00 0.00 0.00 10 1010.1
20260906004004 79 252 8.0 22.0 0.00 0.00 0.00 10 1010.1
20260906003904 79 249 10.0 22.0 0.00 0.00 0.00 10 1010.1
20260906003803 79 252 13.0 22.0 0.00 0.00 0.00 10 1010.1
20260906003704 79 254 12.0 20.0 0.00 0.00 0.00 10 1010.0
20260906003603 79 252 8.0 21.0 0.00 0.00 0.00 10 1010.0
20260906003203 79 240 11.0 21.0 0.00 0.00 0.00 10 1009.9
20260906003103 79 240 9.0 21.0 0.00 0.00 0.00 10 1009.9
20260906003004 79 236 9.0 21.0 0.00 0.00 0.00 10 1010.0
20260906002904 79 232 6.0 21.0 0.00 0.00 0.00 10 1010.0
20260906002803 80 234 11.0 21.0 0.00 0.00 0.00 10 1010.1
20260906002703 80 239 17.0 21.0 0.00 0.00 0.00 10 1009.9
20260906002603 80 244 13.0 18.0 0.00 0.00 0.00 10 1009.8
20260906002503 80 245 10.0 18.0 0.00 0.00 0.00 10 1009.9
20260906002403 80 248 8.0 18.0 0.00 0.00 0.00 10 1010.0
20260906002306 80 242 8.0 18.0 0.00 0.00 0.00 10 1010.0
20260906002204 80 246 9.0 18.0 0.00 0.00 0.00 10 1010.0
20260906002103 80 256 7.0 18.0 0.00 0.00 0.00 10 1009.9
20260906002004 80 256 11.0 20.0 0.00 0.00 0.00 10 1009.9
20260906001903 80 264 8.0 20.0 0.00 0.00 0.00 10 1009.8
20260906001303 81 263 8.0 20.0 0.00 0.00 0.00 10 1009.8
20260906001203 81 259 11.0 20.0 0.00 0.00 0.00 10 1009.8
20260906001104 81 250 15.0 20.0 0.00 0.00 0.00 10 1009.8
20260906001003 81 250 10.0 18.0 0.00 0.00 0.00 10 1009.7
20260906000903 81 243 9.0 18.0 0.00 0.00 0.00 10 1009.7
20260906000804 81 232 10.0 18.0 0.00 0.00 0.00 10 1009.7
20260906000704 81 238 7.0 18.0 0.00 0.00 0.00 10 1009.7
20260906000603 81 239 10.0 18.0 0.00 0.00 0.00 10 1009.8
20260906000503 81 239 14.0 18.0 0.00 0.00 0.00 10 1009.6
20260906000403 81 239 9.0 18.0 0.00 0.00 0.00 10 1009.7
20260906000304 81 239 9.0 18.0 0.00 0.00 0.00 10 1009.7
20260906000204 81 235 9.0 18.0 0.00 0.00 0.00 10 1009.7
20260906000004 81 242 7.0 18.0 0.00 0.00 0.00 10 1009.6
20260905235904 81 245 6.0 18.0 0.00 0.00 0.00 10 1009.7
20260905235803 81 254 9.0 18.0 0.00 0.00 0.00 10 1009.7
20260905235703 81 252 10.0 18.0 0.00 0.00 0.00 10 1009.8
20260905235604 81 248 11.0 18.0 0.00 0.00 0.00 10 1009.6
20260905235005 81 224 8.0 20.0 0.00 0.00 0.00 10 1009.7
20260905234904 81 221 9.0 20.0 0.00 0.00 0.00 10 1009.6
20260905234804 82 219 11.0 20.0 0.00 0.00 0.00 10 1009.6
20260905234705 82 222 11.0 20.0 0.00 0.00 0.00 10 1009.5
20260905234605 82 223 8.0 20.0 0.00 0.00 0.00 10 1009.5
20260905234405 82 230 9.0 20.0 0.00 0.00 0.00 10 1009.6
20260905234305 82 234 11.0 20.0 0.00 0.00 0.00 10 1009.4
20260905234205 82 238 9.0 20.0 0.00 0.00 0.00 10 1009.6
20260905234104 82 247 15.0 20.0 0.00 0.00 0.00 10 1009.5
20260905234005 82 247 4.0 17.0 0.00 0.00 0.00 10 1009.5
20260905233905 82 246 7.0 17.0 0.00 0.00 0.00 10 1009.6
20260905233805 82 244 8.0 17.0 0.00 0.00 0.00 10 1009.5
20260905233705 82 246 8.0 17.0 0.00 0.00 0.00 10 1009.6
20260905233605 82 245 10.0 17.0 0.00 0.00 0.00 10 1009.6
20260905233505 82 238 12.0 17.0 0.00 0.00 0.00 10 1009.6
20260905233405 82 239 12.0 17.0 0.00 0.00 0.00 10 1009.8
20260905233304 82 239 10.0 17.0 0.00 0.00 0.00 10 1009.6
20260905232705 82 225 8.0 14.0 0.00 0.00 0.00 10 1009.6
20260905232605 82 228 9.0 14.0 0.00 0.00 0.00 10 1009.4
20260905232505 82 233 6.0 12.0 0.00 0.00 0.00 10 1009.6
20260905232404 82 238 4.0 12.0 0.00 0.00 0.00 10 1009.6
20260905232306 82 241 3.0 12.0 0.00 0.00 0.00 10 1009.6
20260905232205 82 244 7.0 12.0 0.00 0.00 0.00 10 1009.6
20260905232105 82 240 8.0 12.0 0.00 0.00 0.00 10 1009.6
20260905232004 82 240 8.0 12.0 0.00 0.00 0.00 10 1009.6
20260905231904 82 240 8.0 12.0 0.00 0.00 0.00 10 1009.6
20260905231805 82 249 5.0 11.0 0.00 0.00 0.00 10 1009.6
20260905231705 82 252 6.0 11.0 0.00 0.00 0.00 10 1009.7
20260905231605 82 253 8.0 11.0 0.00 0.00 0.00 10 1009.7
20260905231504 82 250 8.0 11.0 0.00 0.00 0.00 10 1009.5
20260905231405 82 251 5.0 11.0 0.00 0.00 0.00 10 1009.5
20260905231305 82 250 3.0 11.0 0.00 0.00 0.00 10 1009.6
20260905231205 82 240 2.0 11.0 0.00 0.00 0.00 10 1009.7
20260905231104 82 240 3.0 11.0 0.00 0.00 0.00 10 1009.6
20260905231005 82 242 8.0 11.0 0.00 0.00 0.00 10 1009.5
20260905230905 82 244 4.0 9.0 0.00 0.00 0.00 10 1009.5
20260905230805 82 229 3.0 9.0 0.00 0.00 0.00 10 1009.7
20260905230705 82 226 6.0 9.0 0.00 0.00 0.00 10 1009.6
20260905230605 82 181 4.0 8.0 0.00 0.00 0.00 10 1009.7
20260905230504 82 124 4.0 8.0 0.00 0.00 0.00 10 1009.7
20260905230405 82 100 2.0 7.0 0.00 0.00 0.00 10 1009.7
20260905230305 82 88 1.0 7.0 0.00 0.00 0.00 10 1009.7
20260905230204 81 44 1.0 7.0 0.00 0.00 0.00 10 1009.7
20260905230105 81 39 2.0 8.0 0.00 0.00 0.00 10 1009.7
20260905230005 81 23 4.0 8.0 0.00 0.00 0.00 10 1009.8
20260905225904 81 4 2.0 8.0 0.00 0.00 0.00 10 1009.8
20260905225805 81 352 1.0 8.0 0.00 0.00 0.00 10 1009.8
20260905225705 81 341 2.0 8.0 0.00 0.00 0.00 10 1009.8
20260905225605 81 330 2.0 8.0 0.00 0.00 0.00 10 1009.8
20260905225505 81 319 4.0 8.0 0.00 0.00 0.00 10 1009.9
20260905225405 81 309 2.0 8.0 0.00 0.00 0.00 10 1009.9
20260905225306 81 304 2.0 8.0 0.00 0.00 0.00 10 1009.9
20260905225105 81 298 4.0 9.0 0.00 0.00 0.00 10 1009.9
20260905225005 81 290 3.0 9.0 0.00 0.00 0.00 10 1010.0
20260905224905 81 289 3.0 9.0 0.00 0.00 0.00 10 1010.0
20260905224804 80 280 3.0 9.0 0.00 0.00 0.00 11 1010.0
20260905224705 80 283 4.0 9.0 0.00 0.00 0.00 11 1009.9
20260905224605 80 284 3.0 9.0 0.00 0.00 0.00 10 1010.0
20260905224505 80 290 3.0 9.0 0.00 0.00 0.00 10 1010.0
20260905224405 81 293 3.0 9.0 0.00 0.00 0.00 10 1010.0
20260905224305 81 293 3.0 9.0 0.00 0.00 0.00 10 1010.1
20260905224204 82 294 4.0 9.0 0.00 0.00 0.00 10 1010.0
20260905224105 82 293 5.0 9.0 0.00 0.00 0.00 10 1009.9
20260905224005 82 292 4.0 8.0 0.00 0.00 0.00 10 1010.0
20260905223904 82 287 4.0 8.0 0.00 0.00 0.00 10 1009.9
20260905223805 82 290 4.0 8.0 0.00 0.00 0.00 10 1010.0
20260905223705 82 288 4.0 8.0 0.00 0.00 0.00 10 1009.9
20260905223604 81 278 4.0 8.0 0.00 0.00 0.00 10 1009.9
20260905223504 81 274 4.0 8.0 0.00 0.00 0.00 10 1010.0
20260905223405 81 270 3.0 8.0 0.00 0.00 0.00 11 1010.0
20260905223305 81 269 3.0 8.0 0.00 0.00 0.00 11 1010.0
20260905223204 81 262 2.0 8.0 0.00 0.00 0.00 11 1010.0
20260905222605 80 280 2.0 9.0 0.00 0.00 0.00 11 1010.2
20260905222505 81 283 2.0 9.0 0.00 0.00 0.00 11 1010.2
20260905222404 81 286 2.0 9.0 0.00 0.00 0.00 11 1010.2
20260905222306 81 291 2.0 9.0 0.00 0.00 0.00 11 1010.2
20260905222205 81 304 3.0 9.0 0.00 0.00 0.00 11 1010.2
20260905222105 81 315 5.0 9.0 0.00 0.00 0.00 11 1010.3
20260905222004 81 315 4.0 8.0 0.00 0.00 0.00 12 1010.3
20260905221904 81 318 4.0 8.0 0.00 0.00 0.00 12 1010.3
20260905221805 81 310 3.0 8.0 0.00 0.00 0.00 12 1010.2
20260905221705 81 309 2.0 8.0 0.00 0.00 0.00 12 1010.3
20260905221604 80 312 2.0 8.0 0.00 0.00 0.00 12 1010.3
20260905221508 80 310 2.0 8.0 0.00 0.00 0.00 12 1010.4
20260905221305 81 309 2.0 9.0 0.00 0.00 0.00 11 1010.4
20260905221204 81 303 4.0 10.0 0.00 0.00 0.00 11 1010.3
20260905221105 81 299 4.0 10.0 0.00 0.00 0.00 11 1010.4
20260905221005 80 297 4.0 10.0 0.00 0.00 0.00 11 1010.3
20260905220904 80 290 4.0 10.0 0.00 0.00 0.00 12 1010.3
20260905220804 81 295 4.0 10.0 0.00 0.00 0.00 12 1010.4
20260905220705 81 297 4.0 10.0 0.00 0.00 0.00 12 1010.4
20260905220605 81 296 4.0 10.0 0.00 0.00 0.00 12 1010.4
20260905220504 80 295 4.0 10.0 0.00 0.00 0.00 12 1010.4
20260905220404 80 295 5.0 10.0 0.00 0.00 0.00 12 1010.4
20260905220305 80 302 7.0 10.0 0.00 0.00 0.00 12 1010.5
20260905220205 80 309 4.0 8.0 0.00 0.00 0.00 12 1010.5
20260905220105 80 313 2.0 8.0 0.00 0.00 0.00 12 1010.6
20260905220004 80 326 4.0 8.0 0.00 0.00 0.00 12 1010.7
20260905215905 80 335 5.0 8.0 0.00 0.00 0.00 12 1010.6
20260905215805 80 341 6.0 8.0 0.00 0.00 0.00 12 1010.6
20260905215705 80 355 4.0 8.0 0.00 0.00 0.00 12 1010.6
20260905215605 80 2 2.0 8.0 0.00 0.00 0.00 12 1010.6
20260905215505 80 358 2.0 8.0 0.00 0.00 0.00 12 1010.6
20260905215405 80 354 2.0 8.0 0.00 0.00 0.00 12 1010.7
20260905215306 80 348 2.0 8.0 0.00 0.00 0.00 13 1010.7
20260905215205 80 345 4.0 8.0 0.00 0.00 0.00 13 1010.7
20260905215104 80 342 4.0 8.0 0.00 0.00 0.00 13 1010.7
20260905215005 80 326 2.0 8.0 0.00 0.00 0.00 13 1010.7
20260905214905 80 310 3.0 8.0 0.00 0.00 0.00 13 1010.7
20260905214805 80 304 4.0 8.0 0.00 0.00 0.00 13 1010.6
20260905214005 80 170 1.0 8.0 0.00 0.00 0.00 13 1010.8
20260905213905 79 168 2.0 8.0 0.00 0.00 0.00 13 1010.9
20260905213805 79 167 1.0 8.0 0.00 0.00 0.00 14 1010.8
20260905213705 79 168 1.0 8.0 0.00 0.00 0.00 14 1010.9
20260905213504 79 186 2.0 8.0 0.00 0.00 0.00 15 1011.0
20260905213404 79 190 2.0 8.0 0.00 0.00 0.00 15 1011.0
20260905213305 79 204 2.0 8.0 0.00 0.00 0.00 15 1010.9
20260905213205 79 214 3.0 8.0 0.00 0.00 0.00 14 1011.1
20260905213104 79 218 2.0 8.0 0.00 0.00 0.00 15 1011.0
20260905213004 79 224 2.0 8.0 0.00 0.00 0.00 15 1011.0
20260905212905 79 239 3.0 8.0 0.00 0.00 0.00 15 1011.0
20260905212805 78 253 3.0 8.0 0.00 0.00 0.00 16 1010.9
20260905212704 78 261 2.0 8.0 0.00 0.00 0.00 16 1011.1
20260905212605 78 263 2.0 8.0 0.00 0.00 0.00 15 1011.0
20260905212505 78 269 2.0 8.0 0.00 0.00 0.00 15 1011.1
20260905212404 78 285 4.0 8.0 0.00 0.00 0.00 15 1011.1
20260905212306 78 294 4.0 8.0 0.00 0.00 0.00 15 1011.0
20260905212205 78 304 3.0 8.0 0.00 0.00 0.00 15 1011.0
20260905212105 78 309 4.0 8.0 0.00 0.00 0.00 15 1011.0
20260905212004 78 330 4.0 8.0 0.00 0.00 0.00 15 1011.0
20260905211905 78 346 5.0 8.0 0.00 0.00 0.00 15 1011.0
20260905211805 78 350 5.0 8.0 0.00 0.00 0.00 15 1011.0
20260905211505 78 336 2.0 7.0 0.00 0.00 0.00 15 1011.0
20260905211405 78 338 4.0 8.0 0.00 0.00 0.00 15 1011.1
20260905211305 78 340 2.0 9.0 0.00 0.00 0.00 15 1011.0
20260905211204 78 348 2.0 9.0 0.00 0.00 0.00 15 1011.1
20260905211105 78 357 2.0 9.0 0.00 0.00 0.00 15 1011.1
20260905211005 78 355 4.0 9.0 0.00 0.00 0.00 15 1011.1
20260905210904 78 350 4.0 9.0 0.00 0.00 0.00 15 1011.1
20260905210804 78 4 4.0 9.0 0.00 0.00 0.00 16 1011.1
20260905210705 78 12 2.0 9.0 0.00 0.00 0.00 16 1011.2
20260905210605 78 16 2.0 10.0 0.00 0.00 0.00 16 1011.2
20260905210504 78 16 2.0 10.0 0.00 0.00 0.00 16 1011.2
20260905210404 78 351 3.0 11.0 0.00 0.00 0.00 17 1011.2
20260905210305 77 331 2.0 11.0 0.00 0.00 0.00 17 1011.2
20260905210205 77 329 2.0 11.0 0.00 0.00 0.00 17 1011.2
20260905210105 77 337 2.0 11.0 0.00 0.00 0.00 17 1011.2
20260905210004 77 0 0.0 11.0 0.00 0.00 0.00 17 1011.2
20260905205904 77 342 3.0 11.0 0.00 0.00 0.00 17 1011.2
20260905205805 77 347 4.0 11.0 0.00 0.00 0.00 17 1011.3
20260905205705 77 358 4.0 11.0 0.00 0.00 0.00 17 1011.3
20260905205604 77 16 5.0 11.0 0.00 0.00 0.00 17 1011.3
20260905205504 77 27 5.0 11.0 0.00 0.00 0.00 17 1011.3
20260905205405 77 47 4.0 11.0 0.00 0.00 0.00 17 1011.1
20260905205306 77 59 5.0 11.0 0.00 0.00 0.00 17 1011.2
20260905205205 77 53 4.0 10.0 0.00 0.00 0.00 17 1011.3
20260905205105 77 46 1.0 10.0 0.00 0.00 0.00 17 1011.3
20260905204904 77 34 5.0 10.0 0.00 0.00 0.00 17 1011.3
20260905204805 77 40 2.0 11.0 0.00 0.00 0.00 17 1011.3
20260905204605 77 41 1.0 11.0 0.00 0.00 0.00 17 1011.3
20260905204505 77 40 1.0 11.0 0.00 0.00 0.00 17 1011.4
20260905204404 77 43 3.0 11.0 0.00 0.00 0.00 16 1011.5
20260905204304 77 41 4.0 11.0 0.00 0.00 0.00 16 1011.5
20260905204105 77 42 4.0 11.0 0.00 0.00 0.00 16 1011.4
20260905204005 77 48 5.0 11.0 0.00 0.00 0.00 17 1011.5
20260905203904 77 42 7.0 11.0 0.00 0.00 0.00 16 1011.5
20260905203804 77 31 8.0 11.0 0.00 0.00 0.00 16 1011.5
20260905203705 77 19 5.0 11.0 0.00 0.00 0.00 16 1011.5
20260905203607 77 353 4.0 11.0 0.00 0.00 0.00 17 1011.5
20260905203504 77 343 1.0 9.0 0.00 0.00 0.00 17 1011.4
20260905203405 77 345 1.0 9.0 0.00 0.00 0.00 17 1011.5
20260905203305 77 352 1.0 9.0 0.00 0.00 0.00 17 1011.5
20260905203205 77 10 1.0 9.0 0.00 0.00 0.00 17 1011.5
20260905203105 77 4 4.0 11.0 0.00 0.00 0.00 17 1011.6
20260905202505 77 10 2.0 11.0 0.00 0.00 0.00 17 1011.6
20260905202404 77 12 2.0 11.0 0.00 0.00 0.00 17 1011.6
20260905202306 77 10 1.0 11.0 0.00 0.00 0.00 17 1011.7
20260905202205 77 2 4.0 11.0 0.00 0.00 0.00 17 1011.7
20260905202105 77 3 6.0 11.0 0.00 0.00 0.00 17 1011.7
20260905202005 77 2 4.0 11.0 0.00 0.00 0.00 17 1011.7
20260905201904 77 5 4.0 11.0 0.00 0.00 0.00 17 1011.8
20260905201805 77 357 6.0 11.0 0.00 0.00 0.00 17 1011.7
20260905201705 77 352 4.0 11.0 0.00 0.00 0.00 18 1011.7
20260905201605 77 246 4.0 8.0 0.00 0.00 0.00 18 1011.8
20260905201505 77 217 4.0 8.0 0.00 0.00 0.00 18 1011.7
20260905201405 77 216 2.0 8.0 0.00 0.00 0.00 18 1011.8
20260905201305 76 217 3.0 8.0 0.00 0.00 0.00 18 1011.8
20260905201205 76 198 2.0 8.0 0.00 0.00 0.00 19 1011.7
20260905201104 76 200 2.0 8.0 0.00 0.00 0.00 19 1011.8
20260905201004 76 196 1.0 8.0 0.00 0.00 0.00 18 1011.8
20260905200905 76 209 1.0 8.0 0.00 0.00 0.00 18 1011.8
20260905200805 76 212 2.0 8.0 0.00 0.00 0.00 18 1011.8
20260905200704 76 212 2.0 8.0 0.00 0.00 0.00 18 1011.8
20260905200605 76 205 4.0 8.0 0.00 0.00 0.00 18 1011.8
20260905200505 76 206 4.0 8.0 0.00 0.00 0.00 18 1011.8
20260905200404 76 204 2.0 8.0 0.00 0.00 0.00 18 1011.8
20260905200205 76 217 4.0 8.0 0.00 0.00 0.00 18 1011.9
20260905200104 76 226 4.0 8.0 0.00 0.00 0.00 17 1011.9
20260905200004 76 230 4.0 8.0 0.00 0.00 0.00 17 1011.9
20260905195905 76 216 1.0 6.0 0.00 0.00 0.00 18 1011.9
20260905195704 76 217 1.0 6.0 0.00 0.00 0.00 18 1011.9
20260905195604 76 228 1.0 6.0 0.00 0.00 0.00 18 1012.0
20260905195505 76 214 2.0 6.0 0.00 0.00 0.00 18 1012.0
20260905195405 76 207 2.0 6.0 0.00 0.00 0.00 18 1012.1
20260905195306 76 195 2.0 6.0 0.00 0.00 0.00 18 1012.0
20260905195205 76 177 3.0 6.0 0.00 0.00 0.00 18 1012.0
20260905195105 76 152 3.0 5.0 0.00 0.00 0.00 19 1011.9
20260905195005 76 147 2.0 5.0 0.00 0.00 0.00 19 1011.9
20260905194905 76 136 1.0 5.0 0.00 0.00 0.00 19 1011.9
20260905194804 76 126 2.0 7.0 0.00 0.00 0.00 19 1011.9
20260905194705 76 0 0.0 7.0 0.00 0.00 0.00 19 1012.1
20260905194605 76 126 2.0 7.0 0.00 0.00 0.00 19 1011.9
20260905194504 76 130 2.0 7.0 0.00 0.00 0.00 19 1012.0
20260905194404 75 156 3.0 7.0 0.00 0.00 0.00 21 1012.0
20260905194305 75 138 1.0 7.0 0.00 0.00 0.00 21 1012.0
20260905194205 75 148 1.0 7.0 0.00 0.00 0.00 21 1012.0
20260905194105 75 195 3.0 7.0 0.00 0.00 0.00 21 1012.1
20260905194005 75 215 2.0 7.0 0.00 0.00 0.00 20 1012.1
20260905193905 75 212 4.0 8.0 0.00 0.00 0.00 20 1012.1
20260905193805 74 195 2.0 8.0 0.00 0.00 0.00 21 1012.1
20260905193705 74 197 1.0 8.0 0.00 0.00 0.00 21 1012.1
20260905193605 74 204 3.0 8.0 0.00 0.00 0.00 22 1012.0
20260905193505 74 209 2.0 8.0 0.00 0.00 0.00 22 1012.2
20260905193404 74 216 2.0 8.0 0.00 0.00 0.00 21 1012.1
20260905193304 74 0 0.0 8.0 0.00 0.00 0.00 20 1012.2
20260905193205 74 219 3.0 8.0 0.00 0.00 0.00 20 1012.3
20260905193105 74 224 4.0 11.0 0.00 0.00 0.00 20 1012.3
20260905193004 74 232 4.0 11.0 0.00 0.00 0.00 20 1012.2
20260905192905 74 241 5.0 11.0 0.00 0.00 0.00 20 1012.3
20260905192804 74 251 4.0 11.0 0.00 0.00 0.00 20 1012.3
20260905192705 74 250 2.0 11.0 0.00 0.00 0.00 20 1012.3
20260905192605 74 248 2.0 11.0 0.00 0.00 0.00 20 1012.4
20260905192004 75 187 3.0 7.0 0.00 0.00 0.00 21 1012.4
20260905191904 75 169 2.0 7.0 0.00 0.00 0.00 22 1012.5
20260905191805 75 160 1.0 7.0 0.00 0.00 0.00 23 1012.5
20260905191704 74 155 2.0 7.0 0.00 0.00 0.00 22 1012.4
20260905191604 74 155 1.0 7.0 0.00 0.00 0.00 22 1012.5
20260905191505 74 150 1.0 7.0 0.00 0.00 0.00 22 1012.5
20260905191405 74 139 2.0 7.0 0.00 0.00 0.00 22 1012.4
20260905191304 74 119 2.0 7.0 0.00 0.00 0.00 22 1012.5
20260905191205 74 101 2.0 5.0 0.00 0.00 0.00 23 1012.6
20260905191105 74 93 2.0 5.0 0.00 0.00 0.00 22 1012.6
20260905191004 74 81 2.0 5.0 0.00 0.00 0.00 22 1012.6
20260905190905 74 70 3.0 5.0 0.00 0.00 0.00 22 1012.7
20260905190804 74 64 1.0 5.0 0.00 0.00 0.00 22 1012.6
20260905190705 74 57 1.0 5.0 0.00 0.00 0.00 23 1012.7
20260905190605 73 46 2.0 5.0 0.00 0.00 0.00 22 1012.7
20260905190504 73 42 2.0 5.0 0.00 0.00 0.00 22 1012.8
20260905190305 73 28 2.0 5.0 0.00 0.00 0.00 22 1012.7
20260905190204 73 18 1.0 5.0 0.00 0.00 0.00 22 1012.7
20260905190105 73 23 2.0 5.0 0.00 0.00 0.00 23 1012.7
20260905190005 73 14 2.0 5.0 0.00 0.00 0.00 23 1012.8
20260905185904 73 14 1.0 5.0 0.00 0.00 0.00 23 1012.8
20260905185805 72 4 2.0 6.0 0.00 0.00 0.00 23 1012.8
20260905185705 72 350 2.0 6.0 0.00 0.00 0.00 24 1012.7
20260905185605 72 340 2.0 6.0 0.00 0.00 0.00 24 1012.8
20260905185505 72 0 0.0 6.0 0.00 0.00 0.00 24 1012.8
20260905185404 72 311 2.0 6.0 0.00 0.00 0.00 24 1012.8
20260905185306 72 293 2.0 6.0 0.00 0.00 0.00 25 1012.8
20260905185205 72 261 2.0 7.0 0.00 0.00 0.00 25 1012.8
20260905185104 71 265 1.0 7.0 0.00 0.00 0.00 25 1012.9
20260905185004 71 268 2.0 7.0 0.00 0.00 0.00 25 1012.9
20260905184905 71 261 2.0 7.0 0.00 0.00 0.00 26 1012.8
20260905184805 71 256 2.0 8.0 0.00 0.00 0.00 27 1012.9
20260905184704 71 252 1.0 8.0 0.00 0.00 0.00 27 1012.8
20260905184604 70 251 2.0 8.0 0.00 0.00 0.00 27 1012.9
20260905184505 70 256 2.0 8.0 0.00 0.00 0.00 27 1012.8
20260905184405 70 258 1.0 8.0 0.00 0.00 0.00 26 1012.9
20260905184304 70 263 4.0 8.0 0.00 0.00 0.00 26 1012.9
20260905184204 70 272 3.0 8.0 0.00 0.00 0.00 26 1012.9
20260905183605 70 257 3.0 6.0 0.00 0.00 0.00 27 1013.1
20260905183504 70 258 1.0 6.0 0.00 0.00 0.00 27 1013.1
20260905183404 70 266 2.0 6.0 0.00 0.00 0.00 27 1013.0
20260905183305 70 257 3.0 6.0 0.00 0.00 0.00 27 1013.0
20260905183204 69 247 2.0 6.0 0.00 0.00 0.00 27 1013.0
20260905183104 69 259 2.0 6.0 0.00 0.00 0.00 28 1013.0
20260905182505 69 0 0.0 5.0 0.00 0.00 0.00 28 1013.2
20260905182405 69 267 2.0 5.0 0.00 0.00 0.00 28 1013.2
20260905182306 69 270 2.0 5.0 0.00 0.00 0.00 28 1013.2
20260905182204 69 275 2.0 5.0 0.00 0.00 0.00 28 1013.2
20260905182104 69 281 2.0 5.0 0.00 0.00 0.00 28 1013.2
20260905182005 69 279 2.0 5.0 0.00 0.00 0.00 28 1013.2
20260905181905 69 276 3.0 5.0 0.00 0.00 0.00 28 1013.2
20260905181804 69 275 2.0 6.0 0.00 0.00 0.00 28 1013.2
20260905181705 70 284 2.0 6.0 0.00 0.00 0.00 27 1013.2
20260905181605 70 286 2.0 6.0 0.00 0.00 0.00 27 1013.2
20260905181505 70 294 2.0 6.0 0.00 0.00 0.00 27 1013.3
20260905181405 70 307 1.0 7.0 0.00 0.00 0.00 27 1013.2
20260905181304 70 315 2.0 7.0 0.00 0.00 0.00 27 1013.3
20260905181204 70 323 2.0 7.0 0.00 0.00 0.00 27 1013.3
20260905181105 70 333 2.0 8.0 0.00 0.00 0.00 27 1013.3
20260905181005 70 358 3.0 8.0 0.00 0.00 0.00 27 1013.3
20260905180904 70 17 2.0 8.0 0.00 0.00 0.00 28 1013.3
20260905180804 70 29 2.0 8.0 0.00 0.00 0.00 28 1013.2
20260905180705 70 32 1.0 8.0 0.00 0.00 0.00 28 1013.2
20260905180605 69 41 2.0 8.0 0.00 0.00 0.00 28 1013.3
20260905180504 69 54 4.0 8.0 0.00 0.00 0.00 28 1013.3
20260905180405 69 64 3.0 8.0 0.00 0.00 0.00 29 1013.3
20260905180305 69 72 1.0 8.0 0.00 0.00 0.00 29 1013.3
20260905180205 69 78 4.0 8.0 0.00 0.00 0.00 28 1013.4
20260905180105 69 87 5.0 8.0 0.00 0.00 0.00 29 1013.4
20260905180004 69 102 3.0 7.0 0.00 0.00 0.00 30 1013.3
20260905175905 69 103 2.0 6.0 0.00 0.00 0.00 30 1013.4
20260905175805 69 0 0.0 7.0 0.00 0.00 0.00 30 1013.4
20260905175704 69 0 0.0 7.0 0.00 0.00 0.00 30 1013.4
20260905175605 69 118 3.0 7.0 0.00 0.00 0.00 30 1013.4
20260905175505 69 120 1.0 7.0 0.00 0.00 0.00 31 1013.4
20260905175404 69 0 0.0 7.0 0.00 0.00 0.00 32 1013.5
20260905175306 69 108 2.0 7.0 0.00 0.00 0.00 32 1013.3
20260905175205 69 97 3.0 8.0 0.00 0.00 0.00 31 1013.5
20260905175104 69 93 3.0 8.0 0.00 0.00 0.00 31 1013.4
20260905175005 69 89 2.0 8.0 0.00 0.00 0.00 31 1013.4
20260905174905 69 88 3.0 8.0 0.00 0.00 0.00 31 1013.4
20260905174804 69 90 2.0 8.0 0.00 0.00 0.00 31 1013.3
20260905174704 69 87 2.0 8.0 0.00 0.00 0.00 31 1013.5
20260905174605 69 83 2.0 8.0 0.00 0.00 0.00 31 1013.4
20260905174505 69 70 2.0 8.0 0.00 0.00 0.00 31 1013.5
20260905174404 69 60 2.0 8.0 0.00 0.00 0.00 31 1013.4
20260905174304 69 49 5.0 8.0 0.00 0.00 0.00 31 1013.4
20260905174205 69 50 2.0 8.0 0.00 0.00 0.00 32 1013.5
20260905174105 69 63 1.0 7.0 0.00 0.00 0.00 33 1013.4
20260905173604 68 28 2.0 7.0 0.00 0.00 0.00 32 1013.6
20260905173504 68 41 3.0 8.0 0.00 0.00 0.00 33 1013.5
20260905173404 68 48 3.0 8.0 0.00 0.00 0.00 33 1013.6
20260905173305 68 39 4.0 8.0 0.00 0.00 0.00 33 1013.6
20260905173204 68 0 0.0 8.0 0.00 0.00 0.00 33 1013.6
20260905173104 67 44 3.0 8.0 0.00 0.00 0.00 33 1013.6
20260905173004 67 54 3.0 8.0 0.00 0.00 0.00 33 1013.6
20260905172905 67 53 4.0 8.0 0.00 0.00 0.00 33 1013.7
20260905172804 67 48 4.0 8.0 0.00 0.00 0.00 33 1013.7
20260905172705 67 40 4.0 8.0 0.00 0.00 0.00 33 1013.6
20260905172605 67 33 4.0 12.0 0.00 0.00 0.00 33 1013.7
20260905172504 67 19 4.0 12.0 0.00 0.00 0.00 33 1013.6
20260905172405 67 5 4.0 12.0 0.00 0.00 0.00 33 1013.7
20260905172305 67 13 2.0 12.0 0.00 0.00 0.00 34 1013.7
20260905172204 67 0 0.0 12.0 0.00 0.00 0.00 34 1013.6
20260905172105 67 351 1.0 12.0 0.00 0.00 0.00 34 1013.7
20260905172005 67 357 2.0 12.0 0.00 0.00 0.00 34 1013.7
20260905171905 67 359 3.0 12.0 0.00 0.00 0.00 33 1013.7
20260905171805 67 18 2.0 12.0 0.00 0.00 0.00 34 1013.7
20260905171304 67 128 2.0 5.0 0.00 0.00 0.00 35 1013.8
20260905171204 67 108 1.0 5.0 0.00 0.00 0.00 35 1013.6
20260905171105 67 0 0.0 5.0 0.00 0.00 0.00 35 1013.7
20260905171004 67 103 1.0 5.0 0.00 0.00 0.00 35 1013.8
20260905170904 67 109 1.0 5.0 0.00 0.00 0.00 35 1013.8
20260905170805 67 125 2.0 5.0 0.00 0.00 0.00 35 1013.8
20260905170205 66 171 1.0 4.0 0.00 0.00 0.00 37 1013.7
20260905170104 66 176 1.0 4.0 0.00 0.00 0.00 38 1013.7
20260905170004 66 182 1.0 4.0 0.00 0.00 0.00 38 1013.7
20260905165904 66 174 2.0 4.0 0.00 0.00 0.00 38 1013.6
20260905165804 66 174 2.0 4.0 0.00 0.00 0.00 38 1013.7
20260905165704 66 192 1.0 4.0 0.00 0.00 0.00 38 1013.6
20260905165604 66 198 2.0 4.0 0.00 0.00 0.00 38 1013.7
20260905165505 66 198 2.0 4.0 0.00 0.00 0.00 38 1013.7
20260905165404 66 209 2.0 4.0 0.00 0.00 0.00 38 1013.7
20260905165306 66 195 2.0 4.0 0.00 0.00 0.00 38 1013.7
20260905165205 65 175 2.0 4.0 0.00 0.00 0.00 39 1013.7
20260905165104 65 179 2.0 4.0 0.00 0.00 0.00 39 1013.6
20260905165004 65 0 0.0 4.0 0.00 0.00 0.00 39 1013.6
20260905164904 65 0 0.0 4.0 0.00 0.00 0.00 39 1013.7
20260905164804 65 157 1.0 4.0 0.00 0.00 0.00 39 1013.8
20260905164704 65 133 2.0 4.0 0.00 0.00 0.00 39 1013.7
20260905164605 65 124 2.0 4.0 0.00 0.00 0.00 39 1013.7
20260905164504 65 110 2.0 4.0 0.00 0.00 0.00 39 1013.9
20260905164304 65 104 1.0 4.0 0.00 0.00 0.00 40 1013.7
20260905164204 64 0 0.0 4.0 0.00 0.00 0.00 40 1013.8
20260905164104 64 105 2.0 4.0 0.00 0.00 0.00 40 1013.8
20260905164004 64 100 2.0 4.0 0.00 0.00 0.00 40 1013.8
20260905163905 64 118 2.0 4.0 0.00 0.00 0.00 40 1013.8
20260905163804 64 153 2.0 4.0 0.00 0.00 0.00 41 1013.8
20260905163704 64 185 2.0 4.0 0.00 0.00 0.00 41 1013.8
20260905163604 64 199 2.0 4.0 0.00 0.00 0.00 41 1013.7
20260905163504 64 214 2.0 3.0 0.00 0.00 0.00 42 1013.8
20260905163404 63 0 0.0 4.0 0.00 0.00 0.00 42 1013.8
20260905163304 63 0 0.0 4.0 0.00 0.00 0.00 42 1013.8
20260905163204 63 0 0.0 4.0 0.00 0.00 0.00 42 1013.8
20260905163104 63 223 1.0 4.0 0.00 0.00 0.00 42 1013.9
20260905163004 63 227 1.0 4.0 0.00 0.00 0.00 42 1013.8
20260905162905 63 237 2.0 4.0 0.00 0.00 0.00 42 1013.8
20260905162804 63 233 1.0 4.0 0.00 0.00 0.00 43 1013.8
20260905162306 62 233 2.0 4.0 0.00 0.00 0.00 43 1013.8
20260905161704 62 203 2.0 4.0 0.00 0.00 0.00 43 1013.9
20260905161604 62 205 1.0 4.0 0.00 0.00 0.00 44 1013.8
20260905161504 62 205 1.0 4.0 0.00 0.00 0.00 44 1013.7
20260905161404 62 208 1.0 4.0 0.00 0.00 0.00 44 1013.7
20260905161304 62 0 0.0 4.0 0.00 0.00 0.00 44 1013.8
20260905161205 62 217 1.0 4.0 0.00 0.00 0.00 44 1013.8
20260905161104 62 0 0.0 4.0 0.00 0.00 0.00 44 1013.7
20260905161004 61 0 0.0 4.0 0.00 0.00 0.00 44 1013.8
20260905160904 61 222 1.0 4.0 0.00 0.00 0.00 43 1013.8
20260905160804 61 224 2.0 4.0 0.00 0.00 0.00 43 1013.8
20260905160704 62 225 2.0 4.0 0.00 0.00 0.00 43 1013.9
20260905160604 61 226 2.0 4.0 0.00 0.00 0.00 43 1013.8
20260905160504 61 232 2.0 4.0 0.00 0.00 0.00 43 1013.8
20260905160404 61 241 2.0 4.0 0.00 0.00 0.00 43 1013.9
20260905160305 62 238 2.0 4.0 0.00 0.00 0.00 44 1013.9
20260905160204 62 225 3.0 5.0 0.00 0.00 0.00 44 1013.8
20260905160104 61 216 1.0 5.0 0.00 0.00 0.00 44 1013.9
20260905160005 61 0 0.0 5.0 0.00 0.00 0.00 44 1013.8
20260905155904 61 0 0.0 5.0 0.00 0.00 0.00 44 1013.8
20260905155804 61 232 1.0 5.0 0.00 0.00 0.00 44 1014.0
20260905155705 61 227 1.0 5.0 0.00 0.00 0.00 44 1014.0
20260905155604 61 220 2.0 5.0 0.00 0.00 0.00 43 1013.8
20260905155504 61 200 2.0 5.0 0.00 0.00 0.00 43 1013.8
20260905155405 61 195 1.0 5.0 0.00 0.00 0.00 44 1013.8
20260905155306 61 190 2.0 5.0 0.00 0.00 0.00 44 1013.9
20260905155204 61 183 1.0 4.0 0.00 0.00 0.00 44 1013.9
20260905155104 61 189 1.0 4.0 0.00 0.00 0.00 45 1013.9
20260905155004 61 185 1.0 4.0 0.00 0.00 0.00 45 1013.8
20260905154904 61 176 1.0 4.0 0.00 0.00 0.00 45 1013.8
20260905154803 61 0 0.0 4.0 0.00 0.00 0.00 45 1013.8
20260905154704 61 0 0.0 4.0 0.00 0.00 0.00 45 1013.9
20260905154604 60 193 2.0 4.0 0.00 0.00 0.00 45 1014.0
20260905154504 60 203 2.0 4.0 0.00 0.00 0.00 45 1013.9
20260905154404 60 199 2.0 4.0 0.00 0.00 0.00 46 1013.9
20260905154304 60 211 2.0 4.0 0.00 0.00 0.00 46 1014.0
20260905154204 60 199 1.0 4.0 0.00 0.00 0.00 46 1014.0
20260905154104 60 0 0.0 4.0 0.00 0.00 0.00 46 1013.9
20260905154004 60 195 1.0 4.0 0.00 0.00 0.00 46 1014.1
20260905153904 60 191 2.0 4.0 0.00 0.00 0.00 47 1014.1
20260905153804 60 178 1.0 4.0 0.00 0.00 0.00 47 1014.0
20260905153704 60 0 0.0 2.0 0.00 0.00 0.00 47 1013.9
20260905153604 60 174 1.0 2.0 0.00 0.00 0.00 47 1013.9
20260905153504 60 0 0.0 2.0 0.00 0.00 0.00 48 1013.9
20260905153404 60 0 0.0 2.0 0.00 0.00 0.00 48 1013.9
20260905153305 59 0 0.0 2.0 0.00 0.00 0.00 48 1013.9
20260905153204 59 0 0.0 3.0 0.00 0.00 0.00 48 1013.9
20260905153104 59 178 1.0 3.0 0.00 0.00 0.00 49 1013.9
20260905153004 59 178 1.0 3.0 0.00 0.00 0.00 49 1013.8
20260905152904 59 0 0.0 3.0 0.00 0.00 0.00 49 1013.9
20260905152804 59 187 1.0 3.0 0.00 0.00 0.00 49 1013.9
20260905152704 59 0 0.0 3.0 0.00 0.00 0.00 49 1014.0
20260905152504 58 0 0.0 3.0 0.00 0.00 0.00 50 1014.0
20260905152404 58 0 0.0 3.0 0.00 0.00 0.00 50 1014.0
20260905152306 58 171 2.0 3.0 0.00 0.00 0.00 50 1014.0
20260905152204 58 0 0.0 3.0 0.00 0.00 0.00 49 1014.0
20260905152104 58 168 1.0 3.0 0.00 0.00 0.00 50 1013.9
20260905152004 58 158 1.0 4.0 0.00 0.00 0.00 50 1014.0
20260905151904 58 0 0.0 4.0 0.00 0.00 0.00 50 1014.0
20260905151804 58 138 1.0 4.0 0.00 0.00 0.00 50 1014.0
20260905151704 58 0 0.0 4.0 0.00 0.00 0.00 50 1014.0
20260905151604 58 0 0.0 4.0 0.00 0.00 0.00 51 1014.0
20260905151504 58 0 0.0 4.0 0.00 0.00 0.00 51 1014.0
20260905151404 58 0 0.0 4.0 0.00 0.00 0.00 52 1013.9
20260905151303 57 0 0.0 4.0 0.00 0.00 0.00 52 1014.0
20260905151204 57 0 0.0 4.0 0.00 0.00 0.00 52 1014.0
20260905151104 57 121 2.0 4.0 0.00 0.00 0.00 52 1013.9
20260905151004 57 116 1.0 4.0 0.00 0.00 0.00 52 1013.9
20260905150904 57 115 1.0 4.0 0.00 0.00 0.00 53 1014.1
20260905150804 57 0 0.0 4.0 0.00 0.00 0.00 53 1014.0
20260905150704 56 0 0.0 4.0 0.00 0.00 0.00 53 1013.9
20260905150604 56 114 2.0 4.0 0.00 0.00 0.00 53 1013.9
20260905150504 56 118 1.0 4.0 0.00 0.00 0.00 54 1014.0
20260905150404 56 0 0.0 4.0 0.00 0.00 0.00 55 1014.0
20260905150304 56 0 0.0 4.0 0.00 0.00 0.00 55 1014.1
20260905150204 56 125 1.0 4.0 0.00 0.00 0.00 55 1014.0
20260905150104 55 128 1.0 4.0 0.00 0.00 0.00 56 1013.9
20260905150004 55 0 0.0 4.0 0.00 0.00 0.00 56 1014.0
20260905145904 55 136 1.0 4.0 0.00 0.00 0.00 56 1014.1
20260905145704 55 138 1.0 4.0 0.00 0.00 0.00 57 1014.1
20260905145604 54 138 1.0 4.0 0.00 0.00 0.00 57 1014.1
20260905145505 54 147 1.0 3.0 0.00 0.00 0.00 58 1014.1
20260905145404 54 160 1.0 2.0 0.00 0.00 0.00 58 1014.1
20260905145306 54 0 0.0 2.0 0.00 0.00 0.00 59 1014.1
20260905145204 54 0 0.0 2.0 0.00 0.00 0.00 59 1014.2
20260905145104 53 0 0.0 3.0 0.00 0.00 0.00 59 1014.2
20260905145005 53 0 0.0 3.0 0.00 0.00 0.00 60 1014.1
20260905144904 53 0 0.0 3.0 0.00 0.00 0.00 60 1014.1
20260905144804 53 0 0.0 3.0 0.00 0.00 0.00 60 1014.0
20260905144404 52 0 0.0 3.0 0.00 0.00 0.00 61 1014.2
20260905144304 52 125 1.0 3.0 0.00 0.00 0.00 61 1014.1
20260905144204 51 119 1.0 3.0 0.00 0.00 0.00 61 1014.2
20260905144104 51 128 1.0 3.0 0.00 0.00 0.00 61 1014.1
20260905144004 51 128 1.0 3.0 0.00 0.00 0.00 62 1014.2
20260905143905 51 0 0.0 3.0 0.00 0.00 0.00 62 1014.2
20260905143804 51 0 0.0 3.0 0.00 0.00 0.00 62 1014.2
20260905143704 51 0 0.0 3.0 0.00 0.00 0.00 62 1014.2
20260905143604 51 0 0.0 3.0 0.00 0.00 0.00 63 1014.1
20260905143504 51 0 0.0 3.0 0.00 0.00 0.00 63 1014.2
20260905143404 50 0 0.0 3.0 0.00 0.00 0.00 63 1014.1
20260905142904 49 0 0.0 2.0 0.00 0.00 0.00 67 1014.2
20260905142803 49 0 0.0 2.0 0.00 0.00 0.00 68 1014.1
20260905142704 49 0 0.0 2.0 0.00 0.00 0.00 68 1014.1
20260905142604 48 0 0.0 2.0 0.00 0.00 0.00 69 1014.1
20260905142504 48 0 0.0 2.0 0.00 0.00 0.00 69 1014.1
20260905142404 48 0 0.0 2.0 0.00 0.00 0.00 70 1014.0
20260905142306 47 0 0.0 2.0 0.00 0.00 0.00 70 1014.0
20260905142204 47 0 0.0 2.0 0.00 0.00 0.00 70 1014.0
20260905142104 47 0 0.0 2.0 0.00 0.00 0.00 70 1014.1
20260905142004 46 0 0.0 2.0 0.00 0.00 0.00 70 1014.0
20260905141904 46 0 0.0 1.0 0.00 0.00 0.00 71 1014.1
20260905141804 46 0 0.0 1.0 0.00 0.00 0.00 71 1014.0
20260905141704 46 0 0.0 1.0 0.00 0.00 0.00 71 1014.0
20260905141604 45 0 0.0 1.0 0.00 0.00 0.00 71 1014.0
20260905141504 45 0 0.0 1.0 0.00 0.00 0.00 71 1014.1
20260905141404 45 0 0.0 1.0 0.00 0.00 0.00 71 1014.0
20260905141304 44 0 0.0 1.0 0.00 0.00 0.00 73 1014.0
20260905141204 44 0 0.0 2.0 0.00 0.00 0.00 73 1013.9
20260905141104 44 0 0.0 2.0 0.00 0.00 0.00 73 1013.9
20260905141004 44 0 0.0 2.0 0.00 0.00 0.00 73 1013.9
20260905140904 44 0 0.0 2.0 0.00 0.00 0.00 73 1013.9
20260905140404 43 0 0.0 2.0 0.00 0.00 0.00 74 1013.8
20260905140303 43 96 1.0 2.0 0.00 0.00 0.00 74 1013.9
20260905140205 42 92 2.0 2.0 0.00 0.00 0.00 74 1013.8
20260905140104 42 92 1.0 2.0 0.00 0.00 0.00 74 1013.7
20260905140004 42 0 0.0 2.0 0.00 0.00 0.00 74 1013.8
20260905135903 42 0 0.0 2.0 0.00 0.00 0.00 74 1013.7
20260905135804 42 0 0.0 2.0 0.00 0.00 0.00 74 1013.8
20260905135704 42 90 2.0 2.0 0.00 0.00 0.00 74 1013.7
20260905135604 41 90 2.0 2.0 0.00 0.00 0.00 74 1013.7
20260905135504 41 90 1.0 2.0 0.00 0.00 0.00 74 1013.7
20260905135404 41 0 0.0 2.0 0.00 0.00 0.00 74 1013.6
20260905135203 41 98 1.0 2.0 0.00 0.00 0.00 75 1013.7
20260905135104 41 124 2.0 3.0 0.00 0.00 0.00 74 1013.7
20260905135004 41 0 0.0 3.0 0.00 0.00 0.00 74 1013.6
20260905134904 41 0 0.0 3.0 0.00 0.00 0.00 74 1013.8
20260905134804 41 0 0.0 3.0 0.00 0.00 0.00 74 1013.6
20260905134704 41 0 0.0 3.0 0.00 0.00 0.00 74 1013.7
20260905134604 41 0 0.0 3.0 0.00 0.00 0.00 74 1013.6
20260905134504 41 0 0.0 3.0 0.00 0.00 0.00 74 1013.7
20260905134404 41 169 1.0 3.0 0.00 0.00 0.00 74 1013.6
20260905134304 41 0 0.0 3.0 0.00 0.00 0.00 74 1013.8
20260905134205 41 0 0.0 3.0 0.00 0.00 0.00 74 1013.6
20260905134104 41 160 1.0 3.0 0.00 0.00 0.00 74 1013.6
20260905134004 41 0 0.0 3.0 0.00 0.00 0.00 74 1013.7
20260905133905 41 0 0.0 3.0 0.00 0.00 0.00 74 1013.6
20260905133804 41 0 0.0 3.0 0.00 0.00 0.00 74 1013.7
20260905133704 41 0 0.0 3.0 0.00 0.00 0.00 74 1013.7
20260905133605 41 147 1.0 3.0 0.00 0.00 0.00 74 1013.7
20260905133504 41 0 0.0 2.0 0.00 0.00 0.00 74 1013.7
20260905133004 41 0 0.0 2.0 0.00 0.00 0.00 74 1013.6
20260905132904 41 0 0.0 3.0 0.00 0.00 0.00 73 1013.6
20260905132804 41 0 0.0 3.0 0.00 0.00 0.00 73 1013.6
20260905132704 41 0 0.0 3.0 0.00 0.00 0.00 73 1013.6
20260905132604 41 0 0.0 3.0 0.00 0.00 0.00 73 1013.6
20260905132504 41 0 0.0 3.0 0.00 0.00 0.00 73 1013.6
20260905132104 41 0 0.0 4.0 0.00 0.00 0.00 73 1013.5
20260905132004 41 93 2.0 4.0 0.00 0.00 0.00 73 1013.5
20260905131904 41 90 2.0 4.0 0.00 0.00 0.00 73 1013.5
20260905131703 41 90 2.0 4.0 0.00 0.00 0.00 73 1013.5
20260905131604 40 90 2.0 4.0 0.00 0.00 0.00 72 1013.5
20260905131504 40 90 2.0 4.0 0.00 0.00 0.00 72 1013.4
20260905131404 41 90 2.0 4.0 0.00 0.00 0.00 72 1013.4
20260905131304 40 90 3.0 4.0 0.00 0.00 0.00 72 1013.4
20260905131204 40 90 3.0 4.0 0.00 0.00 0.00 72 1013.5
20260905131104 40 90 2.0 3.0 0.00 0.00 0.00 71 1013.5
20260905131004 40 90 2.0 3.0 0.00 0.00 0.00 71 1013.4
20260905130904 40 90 2.0 3.0 0.00 0.00 0.00 71 1013.4
20260905130805 40 90 1.0 2.0 0.00 0.00 0.00 71 1013.4
20260905130704 40 90 1.0 3.0 0.00 0.00 0.00 72 1013.4
20260905130604 40 90 1.0 3.0 0.00 0.00 0.00 72 1013.3
20260905130504 40 0 0.0 3.0 0.00 0.00 0.00 72 1013.3
20260905130404 40 90 1.0 3.0 0.00 0.00 0.00 72 1013.4
20260905130304 40 90 1.0 3.0 0.00 0.00 0.00 72 1013.4
20260905130204 40 90 1.0 3.0 0.00 0.00 0.00 72 1013.4
20260905130104 40 90 1.0 3.0 0.00 0.00 0.00 72 1013.3
20260905130004 40 90 2.0 3.0 0.00 0.00 0.00 72 1013.3
20260905125904 40 90 2.0 3.0 0.00 0.00 0.00 72 1013.3
20260905125804 40 90 2.0 3.0 0.00 0.00 0.00 72 1013.4
20260905125704 40 90 2.0 3.0 0.00 0.00 0.00 71 1013.3
20260905125604 40 90 2.0 3.0 0.00 0.00 0.00 71 1013.4
20260905125504 40 90 2.0 3.0 0.00 0.00 0.00 71 1013.3
20260905125404 40 90 2.0 3.0 0.00 0.00 0.00 71 1013.4
20260905125306 40 90 2.0 3.0 0.00 0.00 0.00 70 1013.4
20260905125204 40 90 2.0 3.0 0.00 0.00 0.00 70 1013.4
20260905125104 40 95 2.0 3.0 0.00 0.00 0.00 69 1013.3
20260905125004 40 106 2.0 3.0 0.00 0.00 0.00 69 1013.3
20260905124904 40 105 2.0 4.0 0.00 0.00 0.00 69 1013.3
20260905124804 40 104 1.0 4.0 0.00 0.00 0.00 69 1013.4
20260905124704 40 105 1.0 4.0 0.00 0.00 0.00 69 1013.3
20260905124603 40 108 1.0 4.0 0.00 0.00 0.00 69 1013.3
20260905124504 41 113 1.0 4.0 0.00 0.00 0.00 69 1013.4
20260905124304 41 0 0.0 4.0 0.00 0.00 0.00 70 1013.3
20260905124204 41 0 0.0 4.0 0.00 0.00 0.00 70 1013.3
20260905124104 41 0 0.0 4.0 0.00 0.00 0.00 70 1013.3
20260905124004 41 97 2.0 4.0 0.00 0.00 0.00 70 1013.3
20260905123904 41 103 2.0 3.0 0.00 0.00 0.00 70 1013.3
20260905123804 41 0 0.0 3.0 0.00 0.00 0.00 70 1013.3
20260905123304 42 0 0.0 3.0 0.00 0.00 0.00 70 1013.3
20260905123104 42 0 0.0 2.0 0.00 0.00 0.00 72 1013.3
20260905123004 42 0 0.0 2.0 0.00 0.00 0.00 73 1013.3
20260905122904 42 0 0.0 2.0 0.00 0.00 0.00 73 1013.3
20260905122804 42 0 0.0 2.0 0.00 0.00 0.00 73 1013.3
20260905122704 42 0 0.0 2.0 0.00 0.00 0.00 72 1013.3
20260905122604 42 0 0.0 2.0 0.00 0.00 0.00 72 1013.3
20260905122504 42 0 0.0 2.0 0.00 0.00 0.00 72 1013.3
20260905122404 42 0 0.0 1.0 0.00 0.00 0.00 71 1013.3
20260905122306 42 0 0.0 0.0 0.00 0.00 0.00 71 1013.2
20260905122204 42 0 0.0 0.0 0.00 0.00 0.00 71 1013.3
20260905122003 42 0 0.0 0.0 0.00 0.00 0.00 71 1013.3
20260905121904 42 0 0.0 1.0 0.00 0.00 0.00 71 1013.3
20260905121804 42 0 0.0 1.0 0.00 0.00 0.00 71 1013.3
20260905121704 42 0 0.0 2.0 0.00 0.00 0.00 72 1013.3
20260905121603 42 0 0.0 2.0 0.00 0.00 0.00 71 1013.5
20260905121504 42 0 0.0 2.0 0.00 0.00 0.00 71 1013.4
20260905121404 42 0 0.0 2.0 0.00 0.00 0.00 70 1013.5
20260905121304 42 0 0.0 2.0 0.00 0.00 0.00 70 1013.5
20260905121204 42 0 0.0 2.0 0.00 0.00 0.00 69 1013.4
20260905121104 42 0 0.0 2.0 0.00 0.00 0.00 69 1013.4
20260905121005 42 0 0.0 2.0 0.00 0.00 0.00 69 1013.5
20260905120404 42 0 0.0 2.0 0.00 0.00 0.00 69 1013.5
20260905120304 42 0 0.0 2.0 0.00 0.00 0.00 69 1013.4
20260905120204 42 0 0.0 2.0 0.00 0.00 0.00 69 1013.3
20260905120104 42 0 0.0 2.0 0.00 0.00 0.00 69 1013.4
20260905120004 42 0 0.0 2.0 0.00 0.00 0.00 69 1013.5
20260905115904 42 0 0.0 2.0 0.00 0.00 0.00 69 1013.5
20260905115804 42 125 1.0 2.0 0.00 0.00 0.00 69 1013.4
20260905115704 42 107 1.0 2.0 0.00 0.00 0.00 68 1013.4
20260905115603 42 0 0.0 2.0 0.00 0.00 0.00 68 1013.4
20260905115504 42 0 0.0 2.0 0.00 0.00 0.00 68 1013.4
20260905115404 42 89 1.0 2.0 0.00 0.00 0.00 67 1013.4
20260905115306 42 86 1.0 2.0 0.00 0.00 0.00 68 1013.4
20260905115204 42 0 0.0 2.0 0.00 0.00 0.00 68 1013.3
20260905115104 42 0 0.0 2.0 0.00 0.00 0.00 68 1013.3
20260905115004 42 0 0.0 2.0 0.00 0.00 0.00 67 1013.4
20260905114904 42 101 1.0 2.0 0.00 0.00 0.00 67 1013.4
20260905114805 43 107 1.0 2.0 0.00 0.00 0.00 68 1013.4
20260905114604 43 0 0.0 2.0 0.00 0.00 0.00 69 1013.3
20260905114504 43 0 0.0 2.0 0.00 0.00 0.00 69 1013.3
20260905114404 42 0 0.0 2.0 0.00 0.00 0.00 69 1013.4
20260905114304 42 0 0.0 2.0 0.00 0.00 0.00 69 1013.4
20260905114204 42 0 0.0 2.0 0.00 0.00 0.00 68 1013.3
20260905114104 42 0 0.0 2.0 0.00 0.00 0.00 68 1013.3
20260905114004 42 0 0.0 2.0 0.00 0.00 0.00 67 1013.3
20260905113904 42 0 0.0 2.0 0.00 0.00 0.00 67 1013.3
20260905113803 42 0 0.0 2.0 0.00 0.00 0.00 67 1013.2
20260905113704 42 0 0.0 2.0 0.00 0.00 0.00 66 1013.3
20260905113604 42 0 0.0 2.0 0.00 0.00 0.00 65 1013.3
20260905113004 43 0 0.0 2.0 0.00 0.00 0.00 67 1013.1
20260905112904 43 0 0.0 2.0 0.00 0.00 0.00 67 1013.3
20260905112803 43 0 0.0 2.0 0.00 0.00 0.00 68 1013.3
20260905112704 43 0 0.0 2.0 0.00 0.00 0.00 69 1013.4
20260905112604 43 0 0.0 2.0 0.00 0.00 0.00 69 1013.4
20260905112504 43 0 0.0 2.0 0.00 0.00 0.00 68 1013.3
20260905112403 42 0 0.0 2.0 0.00 0.00 0.00 67 1013.3
20260905112306 42 0 0.0 2.0 0.00 0.00 0.00 66 1013.3
20260905112204 42 136 1.0 2.0 0.00 0.00 0.00 66 1013.3
20260905112104 42 138 1.0 2.0 0.00 0.00 0.00 67 1013.2
20260905112004 42 0 0.0 2.0 0.00 0.00 0.00 67 1013.2
20260905111904 42 139 1.0 2.0 0.00 0.00 0.00 66 1013.2
20260905111804 42 139 1.0 2.0 0.00 0.00 0.00 66 1013.2
20260905111704 42 141 1.0 2.0 0.00 0.00 0.00 65 1013.3
20260905111604 42 0 0.0 2.0 0.00 0.00 0.00 64 1013.3
20260905111504 42 0 0.0 2.0 0.00 0.00 0.00 64 1013.3
20260905111404 42 140 1.0 2.0 0.00 0.00 0.00 63 1013.2
20260905111304 42 0 0.0 2.0 0.00 0.00 0.00 63 1013.2
20260905111204 42 135 1.0 2.0 0.00 0.00 0.00 62 1013.2
20260905111104 42 0 0.0 2.0 0.00 0.00 0.00 62 1013.2
20260905111004 42 0 0.0 0.0 0.00 0.00 0.00 62 1013.3
20260905110904 42 0 0.0 0.0 0.00 0.00 0.00 62 1013.2
20260905110804 43 0 0.0 0.0 0.00 0.00 0.00 62 1013.2
20260905110704 43 0 0.0 0.0 0.00 0.00 0.00 63 1013.2